Observation data for Rotan on 01/20/2019      Previous  Date  Next       Current Mesonet Observations  Soil Data  Daily Summary Page  Observations in Plain Language
KRO1 200600Z 08004KT M01/M05 A3033 RMK A01 T10051051  RH  071%=      5-min Rain = 0
KRO1 200601Z 09004KT M01/M05 A3033 RMK A01 T10051051  RH  071%=      5-min Rain = 0
KRO1 200602Z 09004KT M01/M05 A3033 RMK A01 T10051051  RH  071%=      5-min Rain = 0
KRO1 200603Z 09004KT M01/M05 A3033 RMK A01 T10051051  RH  071%=      5-min Rain = 0
KRO1 200604Z 10004KT M01/M05 A3033 RMK A01 T10051053  RH  070%=      5-min Rain = 0
KRO1 200605Z 10004KT M01/M05 A3033 RMK A01 T10051054  RH  069%=      5-min Rain = 0
KRO1 200606Z 11003KT M01/M05 A3033 RMK A01 T10051054  RH  069%=      5-min Rain = 0
KRO1 200607Z 11003KT M01/M06 A3034 RMK A01 T10051055  RH  069%=      5-min Rain = 0
KRO1 200608Z 11003KT M01/M06 A3034 RMK A01 T10051055  RH  069%=      5-min Rain = 0
KRO1 200609Z 13003KT M01/M06 A3034 RMK A01 T10051056  RH  068%=      5-min Rain = 0
KRO1 200610Z 13004KT M00/M06 A3034 RMK A01 T10041057  RH  068%=      5-min Rain = 0
KRO1 200611Z 13003KT M01/M06 A3034 RMK A01 T10051058  RH  067%=      5-min Rain = 0
KRO1 200612Z 13003KT M01/M06 A3034 RMK A01 T10051058  RH  068%=      5-min Rain = 0
KRO1 200613Z 13002KT M01/M06 A3034 RMK A01 T10051056  RH  068%=      5-min Rain = 0
KRO1 200614Z 13002KT M01/M06 A3034 RMK A01 T10061056  RH  069%=      5-min Rain = 0
KRO1 200615Z 13002KT M01/M06 A3034 RMK A01 T10061056  RH  069%=      5-min Rain = 0
KRO1 200616Z 12002KT M01/M06 A3034 RMK A01 T10061055  RH  069%=      5-min Rain = 0
KRO1 200617Z 11001KT M01/M06 A3034 RMK A01 T10061055  RH  069%=      5-min Rain = 0
KRO1 200618Z 11001KT M01/M06 A3034 RMK A01 T10071056  RH  069%=      5-min Rain = 0
KRO1 200619Z 11001KT M01/M06 A3034 RMK A01 T10071056  RH  070%=      5-min Rain = 0
KRO1 200620Z 10001KT M01/M06 A3034 RMK A01 T10081056  RH  070%=      5-min Rain = 0
KRO1 200621Z 10001KT M01/M06 A3035 RMK A01 T10091056  RH  070%=      5-min Rain = 0
KRO1 200622Z 10000KT M01/M06 A3035 RMK A01 T10091056  RH  070%=      5-min Rain = 0
KRO1 200623Z 10001KT M01/M06 A3035 RMK A01 T10091056  RH  070%=      5-min Rain = 0
KRO1 200624Z 12001KT M01/M06 A3035 RMK A01 T10091056  RH  071%=      5-min Rain = 0
KRO1 200625Z 12001KT M01/M06 A3035 RMK A01 T10091055  RH  071%=      5-min Rain = 0
KRO1 200626Z 11002KT M01/M05 A3035 RMK A01 T10091054  RH  071%=      5-min Rain = 0
KRO1 200627Z 12002KT M01/M05 A3035 RMK A01 T10091054  RH  072%=      5-min Rain = 0
KRO1 200628Z 12002KT M01/M06 A3036 RMK A01 T10091055  RH  071%=      5-min Rain = 0
KRO1 200629Z 13002KT M01/M06 A3036 RMK A01 T10091055  RH  071%=      5-min Rain = 0
KRO1 200630Z 13002KT M01/M06 A3036 RMK A01 T10091055  RH  071%=      5-min Rain = 0
KRO1 200631Z 12002KT M01/M06 A3036 RMK A01 T10081056  RH  070%=      5-min Rain = 0
KRO1 200632Z 12002KT M01/M06 A3036 RMK A01 T10071056  RH  069%=      5-min Rain = 0
KRO1 200633Z 11002KT M01/M06 A3036 RMK A01 T10061057  RH  068%=      5-min Rain = 0
KRO1 200634Z 10002KT M01/M06 A3036 RMK A01 T10051059  RH  067%=      5-min Rain = 0
KRO1 200635Z 10002KT M00/M06 A3036 RMK A01 T10031059  RH  066%=      5-min Rain = 0
KRO1 200636Z 10002KT M00/M06 A3036 RMK A01 T10021059  RH  065%=      5-min Rain = 0
KRO1 200637Z 11003KT M00/M06 A3036 RMK A01 T10011059  RH  065%=      5-min Rain = 0
KRO1 200638Z 12003KT M00/M06 A3036 RMK A01 T10011059  RH  065%=      5-min Rain = 0
KRO1 200639Z 13003KT M00/M06 A3035 RMK A01 T10011059  RH  065%=      5-min Rain = 0
KRO1 200640Z 14003KT 00/06 A3035 RMK A01 T00-00-58  RH  065%=      5-min Rain = 0
KRO1 200641Z 15004KT M00/M06 A3035 RMK A01 T10011055  RH  067%=      5-min Rain = 0
KRO1 200642Z 15004KT M01/M05 A3035 RMK A01 T10051054  RH  070%=      5-min Rain = 0
KRO1 200643Z 15005KT M01/M05 A3034 RMK A01 T10081054  RH  071%=      5-min Rain = 0
KRO1 200644Z 14005KT M01/M06 A3034 RMK A01 T10091055  RH  071%=      5-min Rain = 0
KRO1 200645Z 13005KT M01/M06 A3034 RMK A01 T10101056  RH  071%=      5-min Rain = 0
KRO1 200646Z 13005KT M01/M06 A3034 RMK A01 T10101057  RH  071%=      5-min Rain = 0
KRO1 200647Z 13005KT M01/M06 A3034 RMK A01 T10101059  RH  070%=      5-min Rain = 0
KRO1 200648Z 12005KT M01/M06 A3034 RMK A01 T10101060  RH  069%=      5-min Rain = 0
KRO1 200649Z 11005KT M01/M06 A3034 RMK A01 T10091061  RH  068%=      5-min Rain = 0
KRO1 200650Z 10005KT M01/M06 A3034 RMK A01 T10091062  RH  068%=      5-min Rain = 0
KRO1 200651Z 10005KT M01/M06 A3034 RMK A01 T10101062  RH  068%=      5-min Rain = 0
KRO1 200652Z 10004KT M01/M06 A3034 RMK A01 T10101061  RH  068%=      5-min Rain = 0
KRO1 200653Z 10004KT M01/M06 A3035 RMK A01 T10101060  RH  069%=      5-min Rain = 0
KRO1 200654Z 11004KT M01/M06 A3035 RMK A01 T10091059  RH  069%=      5-min Rain = 0
KRO1 200655Z 11003KT M01/M06 A3035 RMK A01 T10091059  RH  069%=      5-min Rain = 0
KRO1 200656Z 10003KT M01/M06 A3035 RMK A01 T10081059  RH  068%=      5-min Rain = 0
KRO1 200657Z 09003KT M01/M06 A3035 RMK A01 T10081059  RH  068%=      5-min Rain = 0
KRO1 200658Z 09003KT M01/M06 A3035 RMK A01 T10081060  RH  068%=      5-min Rain = 0
KRO1 200659Z 10003KT M01/M06 A3036 RMK A01 T10071060  RH  068%=      5-min Rain = 0
KRO1 200700Z 10002KT M01/M06 A3036 RMK A01 T10071060  RH  067%=      5-min Rain = 0
KRO1 200701Z 11002KT M01/M06 A3036 RMK A01 T10061060  RH  067%=      5-min Rain = 0
KRO1 200702Z 11002KT M01/M06 A3036 RMK A01 T10061060  RH  067%=      5-min Rain = 0
KRO1 200703Z 10002KT M01/M06 A3036 RMK A01 T10061061  RH  066%=      5-min Rain = 0
KRO1 200704Z 11003KT M01/M06 A3036 RMK A01 T10061062  RH  066%=      5-min Rain = 0
KRO1 200705Z 10003KT M01/M06 A3036 RMK A01 T10061062  RH  066%=      5-min Rain = 0
KRO1 200706Z 08003KT M01/M06 A3035 RMK A01 T10051062  RH  066%=      5-min Rain = 0
KRO1 200707Z 07003KT M01/M06 A3035 RMK A01 T10061062  RH  066%=      5-min Rain = 0
KRO1 200708Z 07003KT M01/M06 A3035 RMK A01 T10061061  RH  066%=      5-min Rain = 0
KRO1 200709Z 06003KT M01/M06 A3035 RMK A01 T10061058  RH  068%=      5-min Rain = 0
KRO1 200710Z 07002KT M01/M06 A3035 RMK A01 T10071056  RH  069%=      5-min Rain = 0
KRO1 200711Z 07002KT M01/M06 A3035 RMK A01 T10081057  RH  069%=      5-min Rain = 0
KRO1 200712Z 08002KT M01/M06 A3035 RMK A01 T10081057  RH  069%=      5-min Rain = 0
KRO1 200713Z 08002KT M01/M06 A3035 RMK A01 T10081058  RH  069%=      5-min Rain = 0
KRO1 200714Z 08003KT M01/M06 A3035 RMK A01 T10081058  RH  069%=      5-min Rain = 0
KRO1 200715Z 09003KT M01/M06 A3035 RMK A01 T10081058  RH  069%=      5-min Rain = 0
KRO1 200716Z 10003KT M01/M06 A3035 RMK A01 T10081057  RH  069%=      5-min Rain = 0
KRO1 200717Z 11003KT M01/M06 A3035 RMK A01 T10081057  RH  069%=      5-min Rain = 0
KRO1 200718Z 12003KT M01/M06 A3035 RMK A01 T10081057  RH  069%=      5-min Rain = 0
KRO1 200719Z 12003KT M01/M06 A3034 RMK A01 T10081057  RH  069%=      5-min Rain = 0
KRO1 200720Z 12003KT M01/M06 A3034 RMK A01 T10081057  RH  069%=      5-min Rain = 0
KRO1 200721Z 12003KT M01/M06 A3034 RMK A01 T10081058  RH  069%=      5-min Rain = 0
KRO1 200722Z 12004KT M01/M06 A3034 RMK A01 T10081059  RH  068%=      5-min Rain = 0
KRO1 200723Z 12004KT M01/M06 A3034 RMK A01 T10081061  RH  067%=      5-min Rain = 0
KRO1 200724Z 12004KT M01/M06 A3034 RMK A01 T10081061  RH  067%=      5-min Rain = 0
KRO1 200725Z 12004KT M01/M06 A3034 RMK A01 T10081062  RH  067%=      5-min Rain = 0
KRO1 200726Z 11004KT M01/M06 A3034 RMK A01 T10081063  RH  066%=      5-min Rain = 0
KRO1 200727Z 10004KT M01/M06 A3034 RMK A01 T10091063  RH  067%=      5-min Rain = 0
KRO1 200728Z 09003KT M01/M06 A3035 RMK A01 T10101063  RH  067%=      5-min Rain = 0
KRO1 200729Z 08003KT M01/M06 A3035 RMK A01 T10111063  RH  068%=      5-min Rain = 0
KRO1 200730Z 08002KT M01/M06 A3035 RMK A01 T10131063  RH  069%=      5-min Rain = 0
KRO1 200731Z 08002KT M02/M07 A3035 RMK A01 T10151065  RH  069%=      5-min Rain = 0
KRO1 200732Z 09002KT M02/M06 A3035 RMK A01 T10161064  RH  070%=      5-min Rain = 0
KRO1 200733Z 10003KT M02/M06 A3035 RMK A01 T10171061  RH  072%=      5-min Rain = 0
KRO1 200734Z 11003KT M02/M06 A3034 RMK A01 T10171058  RH  073%=      5-min Rain = 0
KRO1 200735Z 11003KT M02/M06 A3034 RMK A01 T10171058  RH  073%=      5-min Rain = 0
KRO1 200736Z 11003KT M02/M06 A3034 RMK A01 T10161059  RH  072%=      5-min Rain = 0
KRO1 200737Z 11003KT M01/M06 A3034 RMK A01 T10141060  RH  071%=      5-min Rain = 0
KRO1 200738Z 11003KT M01/M06 A3034 RMK A01 T10141060  RH  071%=      5-min Rain = 0
KRO1 200739Z 10003KT M01/M06 A3034 RMK A01 T10131059  RH  071%=      5-min Rain = 0
KRO1 200740Z 10003KT M01/M06 A3034 RMK A01 T10131059  RH  071%=      5-min Rain = 0
KRO1 200741Z 10002KT M01/M06 A3035 RMK A01 T10131060  RH  070%=      5-min Rain = 0
KRO1 200742Z 10002KT M01/M06 A3035 RMK A01 T10121059  RH  071%=      5-min Rain = 0
KRO1 200743Z 10002KT M01/M06 A3035 RMK A01 T10131058  RH  071%=      5-min Rain = 0
KRO1 200744Z 10002KT M01/M06 A3035 RMK A01 T10131057  RH  072%=      5-min Rain = 0
KRO1 200745Z 10002KT M01/M06 A3035 RMK A01 T10131056  RH  072%=      5-min Rain = 0
KRO1 200746Z 10002KT M01/M06 A3035 RMK A01 T10131056  RH  073%=      5-min Rain = 0
KRO1 200747Z 11002KT M01/M06 A3035 RMK A01 T10131058  RH  072%=      5-min Rain = 0
KRO1 200748Z 12003KT M01/M06 A3035 RMK A01 T10131061  RH  070%=      5-min Rain = 0
KRO1 200749Z 13003KT M01/M06 A3035 RMK A01 T10131062  RH  069%=      5-min Rain = 0
KRO1 200750Z 14003KT M01/M06 A3035 RMK A01 T10121060  RH  070%=      5-min Rain = 0
KRO1 200751Z 14003KT M01/M06 A3035 RMK A01 T10131058  RH  072%=      5-min Rain = 0
KRO1 200752Z 14004KT M01/M06 A3034 RMK A01 T10141058  RH  072%=      5-min Rain = 0
KRO1 200753Z 14004KT M02/M06 A3034 RMK A01 T10161058  RH  073%=      5-min Rain = 0
KRO1 200754Z 15004KT M02/M06 A3034 RMK A01 T10171056  RH  074%=      5-min Rain = 0
KRO1 200755Z 17003KT M02/M05 A3034 RMK A01 T10181054  RH  076%=      5-min Rain = 0
KRO1 200756Z 17003KT M02/M06 A3034 RMK A01 T10191055  RH  076%=      5-min Rain = 0
KRO1 200757Z 18004KT M02/M06 A3034 RMK A01 T10201056  RH  076%=      5-min Rain = 0
KRO1 200758Z 16005KT M02/M06 A3034 RMK A01 T10201057  RH  076%=      5-min Rain = 0
KRO1 200759Z 15005KT M02/M06 A3034 RMK A01 T10211061  RH  074%=      5-min Rain = 0
KRO1 200800Z 14006KT M02/M06 A3034 RMK A01 T10191063  RH  072%=      5-min Rain = 0
KRO1 200801Z 14006KT M02/M06 A3034 RMK A01 T10181064  RH  071%=      5-min Rain = 0
KRO1 200802Z 14006KT M02/M07 A3034 RMK A01 T10181065  RH  070%=      5-min Rain = 0
KRO1 200803Z 14005KT M02/M07 A3034 RMK A01 T10171065  RH  070%=      5-min Rain = 0
KRO1 200804Z 14005KT M02/M07 A3034 RMK A01 T10181065  RH  070%=      5-min Rain = 0
KRO1 200805Z 14004KT M02/M07 A3034 RMK A01 T10191066  RH  070%=      5-min Rain = 0
KRO1 200806Z 14005KT M02/M07 A3034 RMK A01 T10191067  RH  070%=      5-min Rain = 0
KRO1 200807Z 14005KT M02/M07 A3034 RMK A01 T10201067  RH  070%=      5-min Rain = 0
KRO1 200808Z 14005KT M02/M07 A3034 RMK A01 T10191066  RH  070%=      5-min Rain = 0
KRO1 200809Z 13006KT M02/M07 A3034 RMK A01 T10181065  RH  070%=      5-min Rain = 0
KRO1 200810Z 13006KT M02/M06 A3034 RMK A01 T10171064  RH  070%=      5-min Rain = 0
KRO1 200811Z 13005KT M02/M06 A3034 RMK A01 T10161063  RH  071%=      5-min Rain = 0
KRO1 200812Z 13006KT M02/M06 A3034 RMK A01 T10151062  RH  071%=      5-min Rain = 0
KRO1 200813Z 14005KT M02/M06 A3034 RMK A01 T10151062  RH  070%=      5-min Rain = 0
KRO1 200814Z 14005KT M01/M06 A3034 RMK A01 T10141061  RH  070%=      5-min Rain = 0
KRO1 200815Z 14005KT M01/M06 A3034 RMK A01 T10141061  RH  070%=      5-min Rain = 0
KRO1 200816Z 14006KT M02/M06 A3035 RMK A01 T10151061  RH  071%=      5-min Rain = 0
KRO1 200817Z 14005KT M02/M06 A3035 RMK A01 T10151061  RH  071%=      5-min Rain = 0
KRO1 200818Z 14005KT M02/M06 A3035 RMK A01 T10161060  RH  072%=      5-min Rain = 0
KRO1 200819Z 14006KT M02/M06 A3035 RMK A01 T10161060  RH  072%=      5-min Rain = 0
KRO1 200820Z 14006KT M02/M06 A3035 RMK A01 T10161059  RH  072%=      5-min Rain = 0
KRO1 200821Z 13006KT M02/M06 A3035 RMK A01 T10161060  RH  072%=      5-min Rain = 0
KRO1 200822Z 14006KT M02/M06 A3035 RMK A01 T10161060  RH  072%=      5-min Rain = 0
KRO1 200823Z 14006KT M02/M06 A3034 RMK A01 T10161060  RH  072%=      5-min Rain = 0
KRO1 200824Z 15007KT M02/M06 A3034 RMK A01 T10161060  RH  072%=      5-min Rain = 0
KRO1 200825Z 15006KT M02/M06 A3034 RMK A01 T10171059  RH  073%=      5-min Rain = 0
KRO1 200826Z 15006KT M02/M06 A3034 RMK A01 T10181060  RH  073%=      5-min Rain = 0
KRO1 200827Z 14005KT M02/M06 A3034 RMK A01 T10181060  RH  073%=      5-min Rain = 0
KRO1 200828Z 14005KT M02/M06 A3035 RMK A01 T10191061  RH  073%=      5-min Rain = 0
KRO1 200829Z 14006KT M02/M06 A3035 RMK A01 T10201062  RH  073%=      5-min Rain = 0
KRO1 200830Z 14006KT M02/M06 A3034 RMK A01 T10201063  RH  072%=      5-min Rain = 0
KRO1 200831Z 14006KT M02/M06 A3034 RMK A01 T10191063  RH  072%=      5-min Rain = 0
KRO1 200832Z 14006KT M02/M06 A3034 RMK A01 T10191063  RH  072%=      5-min Rain = 0
KRO1 200833Z 14006KT M02/M06 A3034 RMK A01 T10181063  RH  072%=      5-min Rain = 0
KRO1 200834Z 14006KT M02/M06 A3034 RMK A01 T10171062  RH  071%=      5-min Rain = 0
KRO1 200835Z 14006KT M02/M06 A3034 RMK A01 T10171062  RH  071%=      5-min Rain = 0
KRO1 200836Z 14006KT M02/M06 A3034 RMK A01 T10171062  RH  071%=      5-min Rain = 0
KRO1 200837Z 15006KT M02/M06 A3034 RMK A01 T10171062  RH  072%=      5-min Rain = 0
KRO1 200838Z 15006KT M02/M06 A3034 RMK A01 T10171061  RH  072%=      5-min Rain = 0
KRO1 200839Z 15006KT M02/M06 A3034 RMK A01 T10171062  RH  072%=      5-min Rain = 0
KRO1 200840Z 15006KT M02/M06 A3034 RMK A01 T10181063  RH  072%=      5-min Rain = 0
KRO1 200841Z 15006KT M02/M06 A3034 RMK A01 T10191064  RH  072%=      5-min Rain = 0
KRO1 200842Z 15005KT M02/M06 A3034 RMK A01 T10211063  RH  073%=      5-min Rain = 0
KRO1 200843Z 15005KT M02/M06 A3034 RMK A01 T10221063  RH  073%=      5-min Rain = 0
KRO1 200844Z 15005KT M02/M06 A3034 RMK A01 T10231063  RH  074%=      5-min Rain = 0
KRO1 200845Z 15006KT M02/M06 A3034 RMK A01 T10241064  RH  074%=      5-min Rain = 0
KRO1 200846Z 15006KT M02/M06 A3034 RMK A01 T10241064  RH  074%=      5-min Rain = 0
KRO1 200847Z 15006KT M02/M06 A3034 RMK A01 T10241063  RH  075%=      5-min Rain = 0
KRO1 200848Z 15006KT M02/M06 A3034 RMK A01 T10231062  RH  075%=      5-min Rain = 0
KRO1 200849Z 14006KT M02/M06 A3034 RMK A01 T10221062  RH  074%=      5-min Rain = 0
KRO1 200850Z 14006KT M02/M06 A3034 RMK A01 T10221062  RH  074%=      5-min Rain = 0
KRO1 200851Z 14006KT M02/M06 A3034 RMK A01 T10211063  RH  073%=      5-min Rain = 0
KRO1 200852Z 14006KT M02/M06 A3034 RMK A01 T10211063  RH  073%=      5-min Rain = 0
KRO1 200853Z 13006KT M02/M06 A3034 RMK A01 T10211063  RH  073%=      5-min Rain = 0
KRO1 200854Z 13006KT M02/M06 A3034 RMK A01 T10211063  RH  073%=      5-min Rain = 0
KRO1 200855Z 13006KT M02/M06 A3034 RMK A01 T10211062  RH  074%=      5-min Rain = 0
KRO1 200856Z 13006KT M02/M06 A3034 RMK A01 T10211061  RH  074%=      5-min Rain = 0
KRO1 200857Z 13006KT M02/M06 A3034 RMK A01 T10191061  RH  073%=      5-min Rain = 0
KRO1 200858Z 13006KT M02/M06 A3034 RMK A01 T10181061  RH  072%=      5-min Rain = 0
KRO1 200859Z 13006KT M02/M06 A3034 RMK A01 T10171061  RH  072%=      5-min Rain = 0
KRO1 200900Z 13006KT M02/M06 A3034 RMK A01 T10171062  RH  071%=      5-min Rain = 0
KRO1 200901Z 14006KT M02/M06 A3034 RMK A01 T10171062  RH  071%=      5-min Rain = 0
KRO1 200902Z 14006KT M02/M06 A3034 RMK A01 T10171062  RH  071%=      5-min Rain = 0
KRO1 200903Z 14006KT M02/M06 A3034 RMK A01 T10171061  RH  072%=      5-min Rain = 0
KRO1 200904Z 14006KT M02/M06 A3034 RMK A01 T10181061  RH  072%=      5-min Rain = 0
KRO1 200905Z 14006KT M02/M06 A3034 RMK A01 T10191063  RH  072%=      5-min Rain = 0
KRO1 200906Z 13006KT M02/M06 A3034 RMK A01 T10201064  RH  072%=      5-min Rain = 0
KRO1 200907Z 13005KT M02/M07 A3034 RMK A01 T10211065  RH  072%=      5-min Rain = 0
KRO1 200908Z 13005KT M02/M07 A3034 RMK A01 T10221065  RH  072%=      5-min Rain = 0
KRO1 200909Z 13005KT M02/M07 A3034 RMK A01 T10221065  RH  073%=      5-min Rain = 0
KRO1 200910Z 13005KT M02/M06 A3034 RMK A01 T10221064  RH  073%=      5-min Rain = 0
KRO1 200911Z 13005KT M02/M06 A3034 RMK A01 T10211063  RH  073%=      5-min Rain = 0
KRO1 200912Z 13005KT M02/M06 A3034 RMK A01 T10201063  RH  072%=      5-min Rain = 0
KRO1 200913Z 13004KT M02/M06 A3034 RMK A01 T10191063  RH  072%=      5-min Rain = 0
KRO1 200914Z 13004KT M02/M06 A3034 RMK A01 T10181063  RH  072%=      5-min Rain = 0
KRO1 200915Z 13004KT M02/M06 A3034 RMK A01 T10181062  RH  072%=      5-min Rain = 0
KRO1 200916Z 14004KT M02/M06 A3034 RMK A01 T10181062  RH  072%=      5-min Rain = 0
KRO1 200917Z 15004KT M02/M06 A3035 RMK A01 T10181061  RH  072%=      5-min Rain = 0
KRO1 200918Z 15004KT M02/M06 A3035 RMK A01 T10191062  RH  072%=      5-min Rain = 0
KRO1 200919Z 15004KT M02/M06 A3035 RMK A01 T10191063  RH  072%=      5-min Rain = 0
KRO1 200920Z 14004KT M02/M06 A3035 RMK A01 T10201063  RH  072%=      5-min Rain = 0
KRO1 200921Z 13004KT M02/M06 A3035 RMK A01 T10201063  RH  072%=      5-min Rain = 0
KRO1 200922Z 14004KT M02/M06 A3034 RMK A01 T10191063  RH  072%=      5-min Rain = 0
KRO1 200923Z 14004KT M02/M06 A3034 RMK A01 T10191063  RH  072%=      5-min Rain = 0
KRO1 200924Z 15004KT M02/M06 A3034 RMK A01 T10181063  RH  071%=      5-min Rain = 0
KRO1 200925Z 14004KT M02/M06 A3034 RMK A01 T10171063  RH  071%=      5-min Rain = 0
KRO1 200926Z 14004KT M02/M06 A3034 RMK A01 T10171063  RH  071%=      5-min Rain = 0
KRO1 200927Z 14003KT M02/M06 A3035 RMK A01 T10171063  RH  071%=      5-min Rain = 0
KRO1 200928Z 14003KT M02/M06 A3035 RMK A01 T10171063  RH  071%=      5-min Rain = 0
KRO1 200929Z 15004KT M02/M06 A3035 RMK A01 T10181063  RH  071%=      5-min Rain = 0
KRO1 200930Z 15004KT M02/M06 A3035 RMK A01 T10181062  RH  072%=      5-min Rain = 0
KRO1 200931Z 14004KT M02/M06 A3035 RMK A01 T10181063  RH  072%=      5-min Rain = 0
KRO1 200932Z 14004KT M02/M06 A3035 RMK A01 T10181062  RH  072%=      5-min Rain = 0
KRO1 200933Z 14004KT M02/M06 A3035 RMK A01 T10181062  RH  072%=      5-min Rain = 0
KRO1 200934Z 13004KT M02/M06 A3035 RMK A01 T10181062  RH  072%=      5-min Rain = 0
KRO1 200935Z 13004KT M02/M06 A3034 RMK A01 T10181062  RH  072%=      5-min Rain = 0
KRO1 200936Z 13004KT M02/M06 A3034 RMK A01 T10181063  RH  072%=      5-min Rain = 0
KRO1 200937Z 13004KT M02/M06 A3034 RMK A01 T10181063  RH  072%=      5-min Rain = 0
KRO1 200938Z 14004KT M02/M06 A3034 RMK A01 T10191063  RH  071%=      5-min Rain = 0
KRO1 200939Z 14004KT M02/M06 A3034 RMK A01 T10191063  RH  071%=      5-min Rain = 0
KRO1 200940Z 14004KT M02/M06 A3034 RMK A01 T10191063  RH  071%=      5-min Rain = 0
KRO1 200941Z 15004KT M02/M06 A3034 RMK A01 T10181062  RH  072%=      5-min Rain = 0
KRO1 200942Z 15004KT M02/M06 A3034 RMK A01 T10191062  RH  073%=      5-min Rain = 0
KRO1 200943Z 16004KT M02/M06 A3035 RMK A01 T10211062  RH  073%=      5-min Rain = 0
KRO1 200944Z 16004KT M02/M06 A3035 RMK A01 T10221061  RH  074%=      5-min Rain = 0
KRO1 200945Z 16004KT M02/M06 A3035 RMK A01 T10221059  RH  076%=      5-min Rain = 0
KRO1 200946Z 15005KT M02/M06 A3034 RMK A01 T10221059  RH  076%=      5-min Rain = 0
KRO1 200947Z 15005KT M02/M06 A3034 RMK A01 T10221059  RH  076%=      5-min Rain = 0
KRO1 200948Z 15005KT M02/M06 A3034 RMK A01 T10211060  RH  075%=      5-min Rain = 0
KRO1 200949Z 15005KT M02/M06 A3035 RMK A01 T10221061  RH  074%=      5-min Rain = 0
KRO1 200950Z 16005KT M02/M06 A3035 RMK A01 T10221061  RH  074%=      5-min Rain = 0
KRO1 200951Z 16005KT M02/M06 A3035 RMK A01 T10221062  RH  074%=      5-min Rain = 0
KRO1 200952Z 16005KT M02/M06 A3035 RMK A01 T10231062  RH  074%=      5-min Rain = 0
KRO1 200953Z 15004KT M02/M06 A3035 RMK A01 T10231063  RH  074%=      5-min Rain = 0
KRO1 200954Z 15004KT M02/M06 A3035 RMK A01 T10231063  RH  074%=      5-min Rain = 0
KRO1 200955Z 15003KT M02/M06 A3035 RMK A01 T10231063  RH  074%=      5-min Rain = 0
KRO1 200956Z 14003KT M02/M06 A3035 RMK A01 T10231063  RH  074%=      5-min Rain = 0
KRO1 200957Z 14002KT M02/M06 A3035 RMK A01 T10231063  RH  074%=      5-min Rain = 0
KRO1 200958Z 14002KT M02/M06 A3035 RMK A01 T10221063  RH  074%=      5-min Rain = 0
KRO1 200959Z 15002KT M02/M06 A3035 RMK A01 T10221063  RH  073%=      5-min Rain = 0
KRO1 201000Z 16002KT M02/M06 A3035 RMK A01 T10221063  RH  073%=      5-min Rain = 0
KRO1 201001Z 17003KT M02/M06 A3035 RMK A01 T10211062  RH  074%=      5-min Rain = 0
KRO1 201002Z 18003KT M02/M06 A3035 RMK A01 T10221061  RH  074%=      5-min Rain = 0
KRO1 201003Z 18003KT M02/M06 A3035 RMK A01 T10221061  RH  075%=      5-min Rain = 0
KRO1 201004Z 18003KT M02/M06 A3035 RMK A01 T10231062  RH  075%=      5-min Rain = 0
KRO1 201005Z 18003KT M02/M06 A3035 RMK A01 T10221062  RH  074%=      5-min Rain = 0
KRO1 201006Z 18003KT M02/M06 A3035 RMK A01 T10221063  RH  074%=      5-min Rain = 0
KRO1 201007Z 18004KT M02/M06 A3035 RMK A01 T10221063  RH  073%=      5-min Rain = 0
KRO1 201008Z 18004KT M02/M06 A3035 RMK A01 T10221064  RH  073%=      5-min Rain = 0
KRO1 201009Z 18004KT M02/M06 A3035 RMK A01 T10221064  RH  073%=      5-min Rain = 0
KRO1 201010Z 18004KT M02/M06 A3035 RMK A01 T10221063  RH  073%=      5-min Rain = 0
KRO1 201011Z 19004KT M02/M06 A3035 RMK A01 T10221063  RH  074%=      5-min Rain = 0
KRO1 201012Z 19004KT M02/M06 A3035 RMK A01 T10231063  RH  074%=      5-min Rain = 0
KRO1 201013Z 18004KT M02/M06 A3035 RMK A01 T10241062  RH  075%=      5-min Rain = 0
KRO1 201014Z 18004KT M03/M06 A3034 RMK A01 T10251062  RH  076%=      5-min Rain = 0
KRO1 201015Z 17004KT M03/M06 A3034 RMK A01 T10251062  RH  076%=      5-min Rain = 0
KRO1 201016Z 16004KT M03/M06 A3034 RMK A01 T10261062  RH  076%=      5-min Rain = 0
KRO1 201017Z 16004KT M03/M06 A3034 RMK A01 T10261063  RH  076%=      5-min Rain = 0
KRO1 201018Z 16004KT M03/M06 A3034 RMK A01 T10251063  RH  075%=      5-min Rain = 0
KRO1 201019Z 16004KT M02/M06 A3034 RMK A01 T10241063  RH  075%=      5-min Rain = 0
KRO1 201020Z 17004KT M02/M06 A3034 RMK A01 T10231063  RH  074%=      5-min Rain = 0
KRO1 201021Z 18004KT M02/M06 A3034 RMK A01 T10221063  RH  074%=      5-min Rain = 0
KRO1 201022Z 17004KT M02/M06 A3034 RMK A01 T10221062  RH  074%=      5-min Rain = 0
KRO1 201023Z 17004KT M02/M06 A3034 RMK A01 T10231062  RH  074%=      5-min Rain = 0
KRO1 201024Z 17003KT M02/M06 A3034 RMK A01 T10231062  RH  075%=      5-min Rain = 0
KRO1 201025Z 17004KT M02/M06 A3034 RMK A01 T10231062  RH  075%=      5-min Rain = 0
KRO1 201026Z 18004KT M02/M06 A3034 RMK A01 T10231062  RH  075%=      5-min Rain = 0
KRO1 201027Z 18004KT M02/M06 A3034 RMK A01 T10241060  RH  076%=      5-min Rain = 0
KRO1 201028Z 19004KT M02/M06 A3035 RMK A01 T10241058  RH  078%=      5-min Rain = 0
KRO1 201029Z 18004KT M03/M06 A3035 RMK A01 T10251058  RH  078%=      5-min Rain = 0
KRO1 201030Z 18003KT M03/M06 A3034 RMK A01 T10251059  RH  078%=      5-min Rain = 0
KRO1 201031Z 18003KT M03/M06 A3034 RMK A01 T10251060  RH  077%=      5-min Rain = 0
KRO1 201032Z 18003KT M03/M06 A3034 RMK A01 T10261061  RH  077%=      5-min Rain = 0
KRO1 201033Z 18003KT M03/M06 A3034 RMK A01 T10261063  RH  076%=      5-min Rain = 0
KRO1 201034Z 18003KT M03/M06 A3035 RMK A01 T10271064  RH  075%=      5-min Rain = 0
KRO1 201035Z 18003KT M03/M07 A3035 RMK A01 T10271065  RH  075%=      5-min Rain = 0
KRO1 201036Z 19003KT M03/M06 A3035 RMK A01 T10271064  RH  075%=      5-min Rain = 0
KRO1 201037Z 19003KT M03/M06 A3035 RMK A01 T10271064  RH  076%=      5-min Rain = 0
KRO1 201038Z 18003KT M03/M06 A3035 RMK A01 T10271063  RH  076%=      5-min Rain = 0
KRO1 201039Z 17003KT M03/M06 A3034 RMK A01 T10261063  RH  076%=      5-min Rain = 0
KRO1 201040Z 17003KT M03/M06 A3034 RMK A01 T10261063  RH  076%=      5-min Rain = 0
KRO1 201041Z 17003KT M03/M06 A3034 RMK A01 T10261064  RH  075%=      5-min Rain = 0
KRO1 201042Z 17003KT M03/M06 A3034 RMK A01 T10261064  RH  075%=      5-min Rain = 0
KRO1 201043Z 17003KT M03/M06 A3034 RMK A01 T10251064  RH  075%=      5-min Rain = 0
KRO1 201044Z 17003KT M02/M06 A3034 RMK A01 T10241064  RH  074%=      5-min Rain = 0
KRO1 201045Z 18004KT M02/M06 A3034 RMK A01 T10241064  RH  074%=      5-min Rain = 0
KRO1 201046Z 18003KT M02/M06 A3034 RMK A01 T10231064  RH  074%=      5-min Rain = 0
KRO1 201047Z 17003KT M02/M06 A3034 RMK A01 T10231064  RH  074%=      5-min Rain = 0
KRO1 201048Z 16002KT M02/M06 A3034 RMK A01 T10231063  RH  074%=      5-min Rain = 0
KRO1 201049Z 16002KT M02/M06 A3034 RMK A01 T10231063  RH  074%=      5-min Rain = 0
KRO1 201050Z 16003KT M02/M06 A3034 RMK A01 T10241063  RH  075%=      5-min Rain = 0
KRO1 201051Z 16002KT M03/M06 A3034 RMK A01 T10251063  RH  075%=      5-min Rain = 0
KRO1 201052Z 16002KT M03/M06 A3034 RMK A01 T10251063  RH  075%=      5-min Rain = 0
KRO1 201053Z 16002KT M03/M06 A3034 RMK A01 T10251063  RH  075%=      5-min Rain = 0
KRO1 201054Z 16002KT M03/M06 A3034 RMK A01 T10251063  RH  076%=      5-min Rain = 0
KRO1 201055Z 16002KT M03/M06 A3034 RMK A01 T10251063  RH  075%=      5-min Rain = 0
KRO1 201056Z 16002KT M03/M06 A3034 RMK A01 T10251063  RH  075%=      5-min Rain = 0
KRO1 201057Z 16002KT M03/M06 A3034 RMK A01 T10251064  RH  075%=      5-min Rain = 0
KRO1 201058Z 16003KT M03/M06 A3034 RMK A01 T10251064  RH  075%=      5-min Rain = 0
KRO1 201059Z 16003KT M03/M07 A3034 RMK A01 T10251065  RH  074%=      5-min Rain = 0
KRO1 201100Z 16003KT M03/M07 A3034 RMK A01 T10251066  RH  074%=      5-min Rain = 0
KRO1 201101Z 16003KT M02/M07 A3034 RMK A01 T10241066  RH  073%=      5-min Rain = 0
KRO1 201102Z 16003KT M02/M07 A3033 RMK A01 T10231065  RH  073%=      5-min Rain = 0
KRO1 201103Z 16003KT M02/M07 A3033 RMK A01 T10231065  RH  073%=      5-min Rain = 0
KRO1 201104Z 15003KT M02/M07 A3033 RMK A01 T10231066  RH  073%=      5-min Rain = 0
KRO1 201105Z 15003KT M02/M07 A3033 RMK A01 T10231065  RH  072%=      5-min Rain = 0
KRO1 201106Z 15004KT M02/M07 A3033 RMK A01 T10231066  RH  072%=      5-min Rain = 0
KRO1 201107Z 15004KT M02/M07 A3033 RMK A01 T10231066  RH  072%=      5-min Rain = 0
KRO1 201108Z 15004KT M02/M07 A3033 RMK A01 T10231065  RH  072%=      5-min Rain = 0
KRO1 201109Z 16004KT M02/M07 A3033 RMK A01 T10231065  RH  073%=      5-min Rain = 0
KRO1 201110Z 16004KT M02/M06 A3033 RMK A01 T10231064  RH  073%=      5-min Rain = 0
KRO1 201111Z 16004KT M02/M06 A3032 RMK A01 T10241064  RH  074%=      5-min Rain = 0
KRO1 201112Z 16004KT M03/M06 A3032 RMK A01 T10251064  RH  075%=      5-min Rain = 0
KRO1 201113Z 16004KT M03/M06 A3032 RMK A01 T10251064  RH  075%=      5-min Rain = 0
KRO1 201114Z 16004KT M03/M06 A3032 RMK A01 T10251063  RH  075%=      5-min Rain = 0
KRO1 201115Z 16005KT M03/M06 A3032 RMK A01 T10261063  RH  076%=      5-min Rain = 0
KRO1 201116Z 16005KT M03/M06 A3032 RMK A01 T10261063  RH  076%=      5-min Rain = 0
KRO1 201117Z 16005KT M03/M06 A3032 RMK A01 T10271064  RH  076%=      5-min Rain = 0
KRO1 201118Z 16005KT M03/M07 A3032 RMK A01 T10281065  RH  076%=      5-min Rain = 0
KRO1 201119Z 16005KT M03/M06 A3032 RMK A01 T10291064  RH  077%=      5-min Rain = 0
KRO1 201120Z 16004KT M03/M06 A3032 RMK A01 T10301064  RH  078%=      5-min Rain = 0
KRO1 201121Z 16004KT M03/M06 A3032 RMK A01 T10311063  RH  079%=      5-min Rain = 0
KRO1 201122Z 16004KT M03/M06 A3032 RMK A01 T10311062  RH  079%=      5-min Rain = 0
KRO1 201123Z 16005KT M03/M06 A3032 RMK A01 T10311061  RH  080%=      5-min Rain = 0
KRO1 201124Z 16005KT M03/M06 A3032 RMK A01 T10301061  RH  080%=      5-min Rain = 0
KRO1 201125Z 16005KT M03/M06 A3032 RMK A01 T10301060  RH  080%=      5-min Rain = 0
KRO1 201126Z 16005KT M03/M06 A3032 RMK A01 T10301061  RH  079%=      5-min Rain = 0
KRO1 201127Z 16005KT M03/M06 A3032 RMK A01 T10291061  RH  079%=      5-min Rain = 0
KRO1 201128Z 16005KT M03/M06 A3032 RMK A01 T10291062  RH  078%=      5-min Rain = 0
KRO1 201129Z 16005KT M03/M06 A3032 RMK A01 T10281062  RH  077%=      5-min Rain = 0
KRO1 201130Z 16005KT M03/M06 A3032 RMK A01 T10271061  RH  077%=      5-min Rain = 0
KRO1 201131Z 16005KT M03/M06 A3032 RMK A01 T10271062  RH  077%=      5-min Rain = 0
KRO1 201132Z 16005KT M03/M06 A3032 RMK A01 T10271063  RH  076%=      5-min Rain = 0
KRO1 201133Z 16005KT M03/M06 A3032 RMK A01 T10261063  RH  076%=      5-min Rain = 0
KRO1 201134Z 16005KT M03/M06 A3032 RMK A01 T10261063  RH  076%=      5-min Rain = 0
KRO1 201135Z 16005KT M03/M06 A3032 RMK A01 T10261063  RH  076%=      5-min Rain = 0
KRO1 201136Z 15005KT M03/M06 A3032 RMK A01 T10261063  RH  076%=      5-min Rain = 0
KRO1 201137Z 16005KT M03/M06 A3032 RMK A01 T10261064  RH  075%=      5-min Rain = 0
KRO1 201138Z 16005KT M03/M06 A3032 RMK A01 T10261064  RH  075%=      5-min Rain = 0
KRO1 201139Z 15005KT M03/M07 A3032 RMK A01 T10271065  RH  075%=      5-min Rain = 0
KRO1 201140Z 16005KT M03/M07 A3031 RMK A01 T10281065  RH  075%=      5-min Rain = 0
KRO1 201141Z 16006KT M03/M07 A3031 RMK A01 T10281065  RH  076%=      5-min Rain = 0
KRO1 201142Z 16006KT M03/M06 A3031 RMK A01 T10281064  RH  076%=      5-min Rain = 0
KRO1 201143Z 17006KT M03/M06 A3031 RMK A01 T10281064  RH  076%=      5-min Rain = 0
KRO1 201144Z 17006KT M03/M07 A3031 RMK A01 T10291065  RH  077%=      5-min Rain = 0
KRO1 201145Z 16006KT M03/M07 A3031 RMK A01 T10311065  RH  078%=      5-min Rain = 0
KRO1 201146Z 16006KT M03/M06 A3031 RMK A01 T10311063  RH  078%=      5-min Rain = 0
KRO1 201147Z 16006KT M03/M06 A3031 RMK A01 T10311063  RH  079%=      5-min Rain = 0
KRO1 201148Z 16006KT M03/M06 A3031 RMK A01 T10311063  RH  078%=      5-min Rain = 0
KRO1 201149Z 16006KT M03/M06 A3031 RMK A01 T10301063  RH  078%=      5-min Rain = 0
KRO1 201150Z 16006KT M03/M06 A3031 RMK A01 T10301063  RH  078%=      5-min Rain = 0
KRO1 201151Z 17006KT M03/M06 A3031 RMK A01 T10301063  RH  078%=      5-min Rain = 0
KRO1 201152Z 17006KT M03/M06 A3031 RMK A01 T10301063  RH  078%=      5-min Rain = 0
KRO1 201153Z 17007KT M03/M06 A3031 RMK A01 T10301063  RH  078%=      5-min Rain = 0
KRO1 201154Z 17007KT M03/M06 A3031 RMK A01 T10301063  RH  078%=      5-min Rain = 0
KRO1 201155Z 16007KT M03/M06 A3031 RMK A01 T10301063  RH  078%=      5-min Rain = 0
KRO1 201156Z 15007KT M03/M06 A3031 RMK A01 T10301064  RH  077%=      5-min Rain = 0
KRO1 201157Z 15007KT M03/M06 A3032 RMK A01 T10291064  RH  077%=      5-min Rain = 0
KRO1 201158Z 15006KT M03/M06 A3032 RMK A01 T10301064  RH  077%=      5-min Rain = 0
KRO1 201159Z 15006KT M03/M06 A3032 RMK A01 T10291064  RH  077%=      5-min Rain = 0
KRO1 201200Z 15006KT M03/M06 A3032 RMK A01 T10301064  RH  077%=      5-min Rain = 0
KRO1 201201Z 15006KT M03/M06 A3032 RMK A01 T10301064  RH  078%=      5-min Rain = 0
KRO1 201202Z 16006KT M03/M06 A3031 RMK A01 T10311064  RH  078%=      5-min Rain = 0
KRO1 201203Z 16006KT M03/M06 A3031 RMK A01 T10311064  RH  078%=      5-min Rain = 0
KRO1 201204Z 16006KT M03/M06 A3031 RMK A01 T10301063  RH  078%=      5-min Rain = 0
KRO1 201205Z 16005KT M03/M06 A3031 RMK A01 T10291064  RH  077%=      5-min Rain = 0
KRO1 201206Z 15005KT M03/M06 A3031 RMK A01 T10291063  RH  077%=      5-min Rain = 0
KRO1 201207Z 15005KT M03/M06 A3031 RMK A01 T10291063  RH  077%=      5-min Rain = 0
KRO1 201208Z 15004KT M03/M06 A3031 RMK A01 T10291063  RH  077%=      5-min Rain = 0
KRO1 201209Z 16004KT M03/M06 A3031 RMK A01 T10291063  RH  077%=      5-min Rain = 0
KRO1 201210Z 16004KT M03/M06 A3032 RMK A01 T10301063  RH  078%=      5-min Rain = 0
KRO1 201211Z 16005KT M03/M06 A3032 RMK A01 T10301063  RH  078%=      5-min Rain = 0
KRO1 201212Z 17005KT M03/M06 A3032 RMK A01 T10301063  RH  078%=      5-min Rain = 0
KRO1 201213Z 17005KT M03/M06 A3031 RMK A01 T10311063  RH  078%=      5-min Rain = 0
KRO1 201214Z 17005KT M03/M06 A3031 RMK A01 T10311063  RH  079%=      5-min Rain = 0
KRO1 201215Z 17005KT M03/M06 A3031 RMK A01 T10321063  RH  079%=      5-min Rain = 0
KRO1 201216Z 17005KT M03/M06 A3031 RMK A01 T10321062  RH  080%=      5-min Rain = 0
KRO1 201217Z 17005KT M03/M06 A3031 RMK A01 T10321062  RH  080%=      5-min Rain = 0
KRO1 201218Z 17005KT M03/M06 A3031 RMK A01 T10321062  RH  080%=      5-min Rain = 0
KRO1 201219Z 17005KT M03/M06 A3031 RMK A01 T10311061  RH  080%=      5-min Rain = 0
KRO1 201220Z 16005KT M03/M06 A3031 RMK A01 T10311060  RH  080%=      5-min Rain = 0
KRO1 201221Z 16005KT M03/M06 A3031 RMK A01 T10301060  RH  080%=      5-min Rain = 0
KRO1 201222Z 16005KT M03/M06 A3031 RMK A01 T10291061  RH  079%=      5-min Rain = 0
KRO1 201223Z 16005KT M03/M06 A3031 RMK A01 T10291062  RH  078%=      5-min Rain = 0
KRO1 201224Z 16005KT M03/M06 A3031 RMK A01 T10291062  RH  078%=      5-min Rain = 0
KRO1 201225Z 17004KT M03/M06 A3031 RMK A01 T10291063  RH  078%=      5-min Rain = 0
KRO1 201226Z 16004KT M03/M06 A3031 RMK A01 T10291063  RH  077%=      5-min Rain = 0
KRO1 201227Z 16004KT M03/M06 A3031 RMK A01 T10291063  RH  078%=      5-min Rain = 0
KRO1 201228Z 15004KT M03/M06 A3031 RMK A01 T10301063  RH  078%=      5-min Rain = 0
KRO1 201229Z 14004KT M03/M06 A3031 RMK A01 T10301063  RH  078%=      5-min Rain = 0
KRO1 201230Z 15004KT M03/M06 A303 RMK A01 T10311064  RH  078%=      5-min Rain = 0
KRO1 201231Z 15004KT M03/M06 A303 RMK A01 T10321064  RH  078%=      5-min Rain = 0
KRO1 201232Z 16004KT M03/M06 A303 RMK A01 T10321064  RH  079%=      5-min Rain = 0
KRO1 201233Z 16004KT M03/M06 A3031 RMK A01 T10321064  RH  078%=      5-min Rain = 0
KRO1 201234Z 17004KT M03/M06 A3031 RMK A01 T10311064  RH  078%=      5-min Rain = 0
KRO1 201235Z 17004KT M03/M06 A3031 RMK A01 T10311064  RH  078%=      5-min Rain = 0
KRO1 201236Z 17004KT M03/M06 A3031 RMK A01 T10311064  RH  078%=      5-min Rain = 0
KRO1 201237Z 17004KT M03/M06 A3031 RMK A01 T10321064  RH  078%=      5-min Rain = 0
KRO1 201238Z 16004KT M03/M06 A3031 RMK A01 T10321063  RH  079%=      5-min Rain = 0
KRO1 201239Z 15004KT M03/M06 A3031 RMK A01 T10321063  RH  079%=      5-min Rain = 0
KRO1 201240Z 15003KT M03/M06 A3031 RMK A01 T10321063  RH  079%=      5-min Rain = 0
KRO1 201241Z 16003KT M03/M06 A3031 RMK A01 T10331063  RH  079%=      5-min Rain = 0
KRO1 201242Z 17003KT M03/M06 A3031 RMK A01 T10331063  RH  079%=      5-min Rain = 0
KRO1 201243Z 17004KT M03/M06 A3031 RMK A01 T10331064  RH  079%=      5-min Rain = 0
KRO1 201244Z 17004KT M03/M06 A3031 RMK A01 T10331063  RH  079%=      5-min Rain = 0
KRO1 201245Z 18004KT M03/M06 A3031 RMK A01 T10321063  RH  079%=      5-min Rain = 0
KRO1 201246Z 18004KT M03/M06 A3031 RMK A01 T10321063  RH  079%=      5-min Rain = 0
KRO1 201247Z 18004KT M03/M06 A3031 RMK A01 T10311063  RH  078%=      5-min Rain = 0
KRO1 201248Z 19004KT M03/M06 A3031 RMK A01 T10311063  RH  078%=      5-min Rain = 0
KRO1 201249Z 19004KT M03/M06 A3031 RMK A01 T10311063  RH  079%=      5-min Rain = 0
KRO1 201250Z 18004KT M03/M06 A3031 RMK A01 T10311061  RH  079%=      5-min Rain = 0
KRO1 201251Z 17003KT M03/M06 A3031 RMK A01 T10311061  RH  080%=      5-min Rain = 0
KRO1 201252Z 15001KT M03/M06 A3031 RMK A01 T10311061  RH  080%=      5-min Rain = 0
KRO1 201253Z 11001KT M03/M06 A3032 RMK A01 T10311062  RH  079%=      5-min Rain = 0
KRO1 201254Z 10001KT M03/M06 A3032 RMK A01 T10311062  RH  079%=      5-min Rain = 0
KRO1 201255Z 11002KT M03/M06 A3032 RMK A01 T10301062  RH  079%=      5-min Rain = 0
KRO1 201256Z 12002KT M03/M06 A3032 RMK A01 T10301062  RH  078%=      5-min Rain = 0
KRO1 201257Z 14004KT M03/M06 A3032 RMK A01 T10291062  RH  078%=      5-min Rain = 0
KRO1 201258Z 15004KT M03/M06 A3032 RMK A01 T10281062  RH  077%=      5-min Rain = 0
KRO1 201259Z 17004KT M03/M06 A3032 RMK A01 T10261062  RH  076%=      5-min Rain = 0
KRO1 201300Z 17005KT M03/M06 A3032 RMK A01 T10261062  RH  076%=      5-min Rain = 0
KRO1 201301Z 17005KT M03/M06 A3032 RMK A01 T10261062  RH  076%=      5-min Rain = 0
KRO1 201302Z 18005KT M03/M06 A3032 RMK A01 T10251062  RH  076%=      5-min Rain = 0
KRO1 201303Z 18005KT M03/M06 A3031 RMK A01 T10251062  RH  076%=      5-min Rain = 0
KRO1 201304Z 18004KT M03/M06 A3032 RMK A01 T10261062  RH  076%=      5-min Rain = 0
KRO1 201305Z 17004KT M03/M06 A3032 RMK A01 T10271062  RH  077%=      5-min Rain = 0
KRO1 201306Z 17004KT M03/M06 A3032 RMK A01 T10271061  RH  077%=      5-min Rain = 0
KRO1 201307Z 17003KT M03/M06 A3031 RMK A01 T10281061  RH  078%=      5-min Rain = 0
KRO1 201308Z 17002KT M03/M06 A3031 RMK A01 T10281062  RH  078%=      5-min Rain = 0
KRO1 201309Z 16001KT M03/M06 A3031 RMK A01 T10281062  RH  078%=      5-min Rain = 0
KRO1 201310Z 16001KT M03/M06 A3031 RMK A01 T10291062  RH  078%=      5-min Rain = 0
KRO1 201311Z 16001KT M03/M06 A3031 RMK A01 T10291061  RH  079%=      5-min Rain = 0
KRO1 201312Z 16001KT M03/M06 A3031 RMK A01 T10301061  RH  079%=      5-min Rain = 0
KRO1 201313Z 17002KT M03/M06 A3031 RMK A01 T10301061  RH  079%=      5-min Rain = 0
KRO1 201314Z 18002KT M03/M06 A3031 RMK A01 T10301062  RH  079%=      5-min Rain = 0
KRO1 201315Z 18003KT M03/M06 A3031 RMK A01 T10301062  RH  079%=      5-min Rain = 0
KRO1 201316Z 19003KT M03/M06 A3031 RMK A01 T10301062  RH  079%=      5-min Rain = 0
KRO1 201317Z 19003KT M03/M06 A3031 RMK A01 T10301062  RH  079%=      5-min Rain = 0
KRO1 201318Z 18003KT M03/M06 A3031 RMK A01 T10301062  RH  078%=      5-min Rain = 0
KRO1 201319Z 19003KT M03/M06 A3031 RMK A01 T10301062  RH  078%=      5-min Rain = 0
KRO1 201320Z 18003KT M03/M06 A3031 RMK A01 T10301062  RH  078%=      5-min Rain = 0
KRO1 201321Z 18003KT M03/M06 A3031 RMK A01 T10291061  RH  078%=      5-min Rain = 0
KRO1 201322Z 16003KT M03/M06 A3031 RMK A01 T10291062  RH  078%=      5-min Rain = 0
KRO1 201323Z 15003KT M03/M06 A3031 RMK A01 T10291062  RH  078%=      5-min Rain = 0
KRO1 201324Z 14003KT M03/M06 A3031 RMK A01 T10301062  RH  079%=      5-min Rain = 0
KRO1 201325Z 14003KT M03/M06 A3031 RMK A01 T10301062  RH  079%=      5-min Rain = 0
KRO1 201326Z 16003KT M03/M06 A3031 RMK A01 T10311062  RH  079%=      5-min Rain = 0
KRO1 201327Z 16004KT M03/M06 A3031 RMK A01 T10311063  RH  078%=      5-min Rain = 0
KRO1 201328Z 17005KT M03/M06 A3031 RMK A01 T10311064  RH  078%=      5-min Rain = 0
KRO1 201329Z 18004KT M03/M06 A3031 RMK A01 T10301063  RH  078%=      5-min Rain = 0
KRO1 201330Z 18004KT M03/M06 A3031 RMK A01 T10301063  RH  078%=      5-min Rain = 0
KRO1 201331Z 17005KT M03/M06 A3031 RMK A01 T10301063  RH  078%=      5-min Rain = 0
KRO1 201332Z 17005KT M03/M06 A3031 RMK A01 T10301063  RH  078%=      5-min Rain = 0
KRO1 201333Z 17005KT M03/M06 A3031 RMK A01 T10301062  RH  079%=      5-min Rain = 0
KRO1 201334Z 17005KT M03/M06 A3031 RMK A01 T10311061  RH  079%=      5-min Rain = 0
KRO1 201335Z 17005KT M03/M06 A3031 RMK A01 T10311061  RH  080%=      5-min Rain = 0
KRO1 201336Z 17005KT M03/M06 A3031 RMK A01 T10311061  RH  080%=      5-min Rain = 0
KRO1 201337Z 17005KT M03/M06 A3031 RMK A01 T10301060  RH  080%=      5-min Rain = 0
KRO1 201338Z 17005KT M03/M06 A3031 RMK A01 T10301061  RH  079%=      5-min Rain = 0
KRO1 201339Z 17006KT M03/M06 A3031 RMK A01 T10291061  RH  078%=      5-min Rain = 0
KRO1 201340Z 17006KT M03/M06 A3031 RMK A01 T10281061  RH  078%=      5-min Rain = 0
KRO1 201341Z 17006KT M03/M06 A3031 RMK A01 T10281061  RH  078%=      5-min Rain = 0
KRO1 201342Z 17006KT M03/M06 A3031 RMK A01 T10271061  RH  078%=      5-min Rain = 0
KRO1 201343Z 17007KT M03/M06 A3031 RMK A01 T10271061  RH  078%=      5-min Rain = 0
KRO1 201344Z 17007KT M03/M06 A3031 RMK A01 T10271061  RH  077%=      5-min Rain = 0
KRO1 201345Z 17007KT M03/M06 A3031 RMK A01 T10261061  RH  077%=      5-min Rain = 0
KRO1 201346Z 16007KT M03/M06 A3031 RMK A01 T10261062  RH  076%=      5-min Rain = 0
KRO1 201347Z 16007KT M03/M06 A3031 RMK A01 T10251063  RH  075%=      5-min Rain = 0
KRO1 201348Z 16007KT M03/M06 A3031 RMK A01 T10251063  RH  075%=      5-min Rain = 0
KRO1 201349Z 16007KT M03/M06 A3031 RMK A01 T10251063  RH  075%=      5-min Rain = 0
KRO1 201350Z 16007KT M03/M06 A3031 RMK A01 T10251063  RH  075%=      5-min Rain = 0
KRO1 201351Z 16007KT M03/M06 A3031 RMK A01 T10251063  RH  076%=      5-min Rain = 0
KRO1 201352Z 16007KT M03/M06 A3031 RMK A01 T10261063  RH  076%=      5-min Rain = 0
KRO1 201353Z 16007KT M03/M06 A3031 RMK A01 T10261062  RH  076%=      5-min Rain = 0
KRO1 201354Z 16007KT M03/M06 A3031 RMK A01 T10261062  RH  076%=      5-min Rain = 0
KRO1 201355Z 16007KT M03/M06 A3031 RMK A01 T10261062  RH  076%=      5-min Rain = 0
KRO1 201356Z 17007KT M03/M06 A3031 RMK A01 T10261062  RH  076%=      5-min Rain = 0
KRO1 201357Z 17006KT M03/M06 A3031 RMK A01 T10251062  RH  076%=      5-min Rain = 0
KRO1 201358Z 17006KT M03/M06 A3031 RMK A01 T10251062  RH  076%=      5-min Rain = 0
KRO1 201359Z 17006KT M03/M06 A3031 RMK A01 T10251063  RH  075%=      5-min Rain = 0
KRO1 201400Z 16006KT M03/M06 A3031 RMK A01 T10251063  RH  075%=      5-min Rain = 0
KRO1 201401Z 16006KT M03/M06 A3031 RMK A01 T10251062  RH  076%=      5-min Rain = 0
KRO1 201402Z 16006KT M03/M06 A3031 RMK A01 T10251062  RH  076%=      5-min Rain = 0
KRO1 201403Z 16005KT M03/M06 A3031 RMK A01 T10251061  RH  076%=      5-min Rain = 0
KRO1 201404Z 15005KT M03/M06 A3031 RMK A01 T10261061  RH  077%=      5-min Rain = 0
KRO1 201405Z 16005KT M03/M06 A3031 RMK A01 T10261060  RH  077%=      5-min Rain = 0
KRO1 201406Z 16005KT M03/M06 A3031 RMK A01 T10261060  RH  077%=      5-min Rain = 0
KRO1 201407Z 16005KT M03/M06 A3031 RMK A01 T10261059  RH  078%=      5-min Rain = 0
KRO1 201408Z 16005KT M03/M06 A3031 RMK A01 T10261059  RH  078%=      5-min Rain = 0
KRO1 201409Z 17006KT M03/M06 A3031 RMK A01 T10261059  RH  078%=      5-min Rain = 0
KRO1 201410Z 16006KT M03/M06 A3031 RMK A01 T10251059  RH  077%=      5-min Rain = 0
KRO1 201411Z 16006KT M03/M06 A3031 RMK A01 T10251059  RH  077%=      5-min Rain = 0
KRO1 201412Z 16005KT M02/M06 A3031 RMK A01 T10241058  RH  077%=      5-min Rain = 0
KRO1 201413Z 16005KT M02/M06 A3031 RMK A01 T10241058  RH  077%=      5-min Rain = 0
KRO1 201414Z 15005KT M02/M06 A3031 RMK A01 T10241057  RH  078%=      5-min Rain = 0
KRO1 201415Z 15005KT M02/M06 A3031 RMK A01 T10231057  RH  078%=      5-min Rain = 0
KRO1 201416Z 15004KT M02/M06 A3031 RMK A01 T10231056  RH  078%=      5-min Rain = 0
KRO1 201417Z 15005KT M02/M06 A3031 RMK A01 T10231055  RH  078%=      5-min Rain = 0
KRO1 201418Z 15005KT M02/M06 A3031 RMK A01 T10221055  RH  078%=      5-min Rain = 0
KRO1 201419Z 15005KT M02/M05 A3031 RMK A01 T10211054  RH  078%=      5-min Rain = 0
KRO1 201420Z 16004KT M02/M05 A3031 RMK A01 T10211054  RH  078%=      5-min Rain = 0
KRO1 201421Z 17004KT M02/M05 A3031 RMK A01 T10201054  RH  077%=      5-min Rain = 0
KRO1 201422Z 17004KT M02/M05 A3031 RMK A01 T10191054  RH  077%=      5-min Rain = 0
KRO1 201423Z 18004KT M02/M05 A3031 RMK A01 T10191053  RH  077%=      5-min Rain = 0
KRO1 201424Z 17003KT M02/M05 A3031 RMK A01 T10181053  RH  077%=      5-min Rain = 0
KRO1 201425Z 17003KT M02/M05 A3032 RMK A01 T10181054  RH  076%=      5-min Rain = 0
KRO1 201426Z 17003KT M02/M05 A3032 RMK A01 T10171054  RH  076%=      5-min Rain = 0
KRO1 201427Z 17003KT M02/M05 A3032 RMK A01 T10161054  RH  076%=      5-min Rain = 0
KRO1 201428Z 17003KT M02/M05 A3032 RMK A01 T10161053  RH  076%=      5-min Rain = 0
KRO1 201429Z 17003KT M02/M05 A3032 RMK A01 T10151052  RH  076%=      5-min Rain = 0
KRO1 201430Z 17003KT M02/M05 A3032 RMK A01 T10151053  RH  075%=      5-min Rain = 0
KRO1 201431Z 17004KT M02/M05 A3032 RMK A01 T10151053  RH  075%=      5-min Rain = 0
KRO1 201432Z 17004KT M01/M05 A3032 RMK A01 T10141054  RH  074%=      5-min Rain = 0
KRO1 201433Z 17004KT M01/M06 A3032 RMK A01 T10131055  RH  073%=      5-min Rain = 0
KRO1 201434Z 17003KT M01/M06 A3032 RMK A01 T10131055  RH  073%=      5-min Rain = 0
KRO1 201435Z 17004KT M01/M06 A3032 RMK A01 T10121056  RH  072%=      5-min Rain = 0
KRO1 201436Z 17004KT M01/M06 A3032 RMK A01 T10121055  RH  072%=      5-min Rain = 0
KRO1 201437Z 17003KT M01/M06 A3032 RMK A01 T10121055  RH  072%=      5-min Rain = 0
KRO1 201438Z 17005KT M01/M06 A3032 RMK A01 T10111055  RH  072%=      5-min Rain = 0
KRO1 201439Z 17004KT M01/M06 A3032 RMK A01 T10101057  RH  071%=      5-min Rain = 0
KRO1 201440Z 18005KT M01/M06 A3032 RMK A01 T10101056  RH  071%=      5-min Rain = 0
KRO1 201441Z 18005KT M01/M06 A3032 RMK A01 T10091056  RH  071%=      5-min Rain = 0
KRO1 201442Z 18005KT M01/M06 A3032 RMK A01 T10091055  RH  071%=      5-min Rain = 0
KRO1 201443Z 17004KT M01/M05 A3031 RMK A01 T10081054  RH  071%=      5-min Rain = 0
KRO1 201444Z 18005KT M01/M05 A3031 RMK A01 T10081053  RH  072%=      5-min Rain = 0
KRO1 201445Z 18005KT M01/M05 A3031 RMK A01 T10081053  RH  071%=      5-min Rain = 0
KRO1 201446Z 17005KT M01/M05 A3031 RMK A01 T10071053  RH  071%=      5-min Rain = 0
KRO1 201447Z 17006KT M01/M05 A3031 RMK A01 T10071054  RH  070%=      5-min Rain = 0
KRO1 201448Z 17005KT M01/M06 A3031 RMK A01 T10061055  RH  070%=      5-min Rain = 0
KRO1 201449Z 17006KT M01/M06 A3031 RMK A01 T10061055  RH  069%=      5-min Rain = 0
KRO1 201450Z 17006KT M01/M06 A3031 RMK A01 T10061055  RH  069%=      5-min Rain = 0
KRO1 201451Z 18006KT M01/M06 A3032 RMK A01 T10061056  RH  069%=      5-min Rain = 0
KRO1 201452Z 17005KT M01/M06 A3032 RMK A01 T10051056  RH  069%=      5-min Rain = 0
KRO1 201453Z 18005KT M01/M06 A3032 RMK A01 T10051055  RH  069%=      5-min Rain = 0
KRO1 201454Z 18005KT M01/M05 A3032 RMK A01 T10051054  RH  069%=      5-min Rain = 0
KRO1 201455Z 18005KT M01/M05 A3032 RMK A01 T10051054  RH  070%=      5-min Rain = 0
KRO1 201456Z 18005KT M01/M05 A3032 RMK A01 T10051053  RH  070%=      5-min Rain = 0
KRO1 201457Z 18005KT M01/M05 A3032 RMK A01 T10051054  RH  070%=      5-min Rain = 0
KRO1 201458Z 18005KT M01/M05 A3032 RMK A01 T10051053  RH  070%=      5-min Rain = 0
KRO1 201459Z 18005KT M00/M05 A3032 RMK A01 T10041052  RH  070%=      5-min Rain = 0
KRO1 201500Z 18005KT M00/M05 A3032 RMK A01 T10041051  RH  071%=      5-min Rain = 0
KRO1 201501Z 18004KT M00/M05 A3032 RMK A01 T10041050  RH  071%=      5-min Rain = 0
KRO1 201502Z 18004KT M00/M05 A3032 RMK A01 T10041049  RH  071%=      5-min Rain = 0
KRO1 201503Z 18003KT M00/M05 A3032 RMK A01 T10031049  RH  071%=      5-min Rain = 0
KRO1 201504Z 18005KT M00/M05 A3032 RMK A01 T10031048  RH  072%=      5-min Rain = 0
KRO1 201505Z 17005KT M00/M05 A3032 RMK A01 T10021050  RH  070%=      5-min Rain = 0
KRO1 201506Z 18006KT M00/M05 A3031 RMK A01 T10021052  RH  069%=      5-min Rain = 0
KRO1 201507Z 18005KT M00/M05 A3031 RMK A01 T10011054  RH  068%=      5-min Rain = 0
KRO1 201508Z 18005KT M00/M06 A3031 RMK A01 T10021055  RH  067%=      5-min Rain = 0
KRO1 201509Z 17005KT M00/M05 A3031 RMK A01 T10011054  RH  068%=      5-min Rain = 0
KRO1 201510Z 17005KT M00/M06 A3031 RMK A01 T10011055  RH  067%=      5-min Rain = 0
KRO1 201511Z 17005KT M00/M06 A3031 RMK A01 T10011056  RH  066%=      5-min Rain = 0
KRO1 201512Z 17005KT 00/05 A3031 RMK A01 T00-00-54  RH  067%=      5-min Rain = 0
KRO1 201513Z 17006KT 00/M05 A3031 RMK A01 T00011052  RH  068%=      5-min Rain = 0
KRO1 201514Z 17006KT 00/M05 A3031 RMK A01 T00011053  RH  067%=      5-min Rain = 0
KRO1 201515Z 18006KT 00/M05 A3031 RMK A01 T00011053  RH  067%=      5-min Rain = 0
KRO1 201516Z 19006KT 00/M05 A3031 RMK A01 T00011053  RH  067%=      5-min Rain = 0
KRO1 201517Z 19006KT 00/M05 A3031 RMK A01 T00011050  RH  068%=      5-min Rain = 0
KRO1 201518Z 19006KT 00/M05 A3031 RMK A01 T00021051  RH  068%=      5-min Rain = 0
KRO1 201519Z 19005KT 00/M05 A3032 RMK A01 T00021050  RH  068%=      5-min Rain = 0
KRO1 201520Z 18006KT 00/M05 A3032 RMK A01 T00031048  RH  068%=      5-min Rain = 0
KRO1 201521Z 18005KT 00/M05 A3032 RMK A01 T00041047  RH  068%=      5-min Rain = 0
KRO1 201522Z 19006KT 01/M05 A3032 RMK A01 T00051048  RH  068%=      5-min Rain = 0
KRO1 201523Z 19005KT 01/M05 A3032 RMK A01 T00051050  RH  067%=      5-min Rain = 0
KRO1 201524Z 18005KT 01/M05 A3032 RMK A01 T00061048  RH  067%=      5-min Rain = 0
KRO1 201525Z 18005KT 01/M05 A3032 RMK A01 T00071047  RH  067%=      5-min Rain = 0
KRO1 201526Z 17005KT 01/M05 A3032 RMK A01 T00081049  RH  066%=      5-min Rain = 0
KRO1 201527Z 17006KT 01/M05 A3032 RMK A01 T00081050  RH  065%=      5-min Rain = 0
KRO1 201528Z 17005KT 01/M05 A3032 RMK A01 T00091050  RH  065%=      5-min Rain = 0
KRO1 201529Z 17005KT 01/M05 A3032 RMK A01 T00101048  RH  065%=      5-min Rain = 0
KRO1 201530Z 17005KT 01/M05 A3032 RMK A01 T00121047  RH  065%=      5-min Rain = 0
KRO1 201531Z 17004KT 01/M05 A3032 RMK A01 T00131046  RH  065%=      5-min Rain = 0
KRO1 201532Z 18005KT 01/M04 A3032 RMK A01 T00141044  RH  065%=      5-min Rain = 0
KRO1 201533Z 18006KT 02/M05 A3031 RMK A01 T00151046  RH  064%=      5-min Rain = 0
KRO1 201534Z 18005KT 02/M05 A3031 RMK A01 T00161048  RH  063%=      5-min Rain = 0
KRO1 201535Z 18005KT 02/M05 A3031 RMK A01 T00161048  RH  062%=      5-min Rain = 0
KRO1 201536Z 18005KT 02/M05 A3031 RMK A01 T00161048  RH  063%=      5-min Rain = 0
KRO1 201537Z 18005KT 02/M05 A3031 RMK A01 T00161045  RH  064%=      5-min Rain = 0
KRO1 201538Z 17005KT 02/M05 A3031 RMK A01 T00171047  RH  062%=      5-min Rain = 0
KRO1 201539Z 17004KT 02/M05 A3031 RMK A01 T00181045  RH  063%=      5-min Rain = 0
KRO1 201540Z 18005KT 02/M04 A3031 RMK A01 T00201040  RH  064%=      5-min Rain = 0
KRO1 201541Z 18005KT 02/M04 A3031 RMK A01 T00221042  RH  063%=      5-min Rain = 0
KRO1 201542Z 17004KT 02/M04 A3031 RMK A01 T00221044  RH  062%=      5-min Rain = 0
KRO1 201543Z 17005KT 02/M05 A3031 RMK A01 T00221045  RH  061%=      5-min Rain = 0
KRO1 201544Z 17005KT 02/M05 A3031 RMK A01 T00221048  RH  060%=      5-min Rain = 0
KRO1 201545Z 17005KT 02/M05 A3031 RMK A01 T00221049  RH  059%=      5-min Rain = 0
KRO1 201546Z 18005KT 02/M05 A3031 RMK A01 T00221049  RH  059%=      5-min Rain = 0
KRO1 201547Z 18004KT 02/M05 A3031 RMK A01 T00231046  RH  060%=      5-min Rain = 0
KRO1 201548Z 17005KT 02/M05 A3031 RMK A01 T00241046  RH  060%=      5-min Rain = 0
KRO1 201549Z 17006KT 03/M05 A3031 RMK A01 T00251046  RH  060%=      5-min Rain = 0
KRO1 201550Z 17005KT 03/M05 A3031 RMK A01 T00261048  RH  058%=      5-min Rain = 0
KRO1 201551Z 18005KT 03/M05 A3031 RMK A01 T00261048  RH  058%=      5-min Rain = 0
KRO1 201552Z 19005KT 03/M05 A3031 RMK A01 T00261047  RH  059%=      5-min Rain = 0
KRO1 201553Z 19005KT 03/M05 A3031 RMK A01 T00271045  RH  059%=      5-min Rain = 0
KRO1 201554Z 19007KT 03/M04 A3031 RMK A01 T00291044  RH  059%=      5-min Rain = 0
KRO1 201555Z 18007KT 03/M05 A3031 RMK A01 T00301046  RH  057%=      5-min Rain = 0
KRO1 201556Z 18006KT 03/M05 A3031 RMK A01 T00301049  RH  056%=      5-min Rain = 0
KRO1 201557Z 19007KT 03/M05 A3031 RMK A01 T00301047  RH  057%=      5-min Rain = 0
KRO1 201558Z 18006KT 03/M05 A303 RMK A01 T00311045  RH  057%=      5-min Rain = 0
KRO1 201559Z 18007KT 03/M04 A303 RMK A01 T00331043  RH  058%=      5-min Rain = 0
KRO1 201600Z 19006KT 03/M04 A303 RMK A01 T00331044  RH  057%=      5-min Rain = 0
KRO1 201601Z 18006KT 03/M05 A303 RMK A01 T00341045  RH  056%=      5-min Rain = 0
KRO1 201602Z 18007KT 03/M05 A3031 RMK A01 T00341045  RH  056%=      5-min Rain = 0
KRO1 201603Z 18007KT 03/M05 A3031 RMK A01 T00341047  RH  056%=      5-min Rain = 0
KRO1 201604Z 18006KT 03/M05 A3031 RMK A01 T00331048  RH  055%=      5-min Rain = 0
KRO1 201605Z 19007KT 03/M05 A3031 RMK A01 T00331047  RH  056%=      5-min Rain = 0
KRO1 201606Z 19007KT 03/M05 A3031 RMK A01 T00341046  RH  056%=      5-min Rain = 0
KRO1 201607Z 17007KT 04/M05 A3031 RMK A01 T00351046  RH  055%=      5-min Rain = 0
KRO1 201608Z 17006KT 04/M05 A3031 RMK A01 T00361046  RH  055%=      5-min Rain = 0
KRO1 201609Z 18006KT 04/M05 A3031 RMK A01 T00351045  RH  055%=      5-min Rain = 0
KRO1 201610Z 18007KT 04/M04 A3031 RMK A01 T00371042  RH  056%=      5-min Rain = 0
KRO1 201611Z 18007KT 04/M04 A3031 RMK A01 T00391042  RH  056%=      5-min Rain = 0
KRO1 201612Z 19007KT 04/M04 A3031 RMK A01 T00401043  RH  055%=      5-min Rain = 0
KRO1 201613Z 17008KT 04/M04 A3031 RMK A01 T00401043  RH  054%=      5-min Rain = 0
KRO1 201614Z 17007KT 04/M05 A3031 RMK A01 T00401047  RH  053%=      5-min Rain = 0
KRO1 201615Z 17008KT 04/M05 A3031 RMK A01 T00391047  RH  053%=      5-min Rain = 0
KRO1 201616Z 18008KT 04/M04 A3031 RMK A01 T00401044  RH  054%=      5-min Rain = 0
KRO1 201617Z 18008KT 04/M04 A3031 RMK A01 T00411044  RH  054%=      5-min Rain = 0
KRO1 201618Z 17008KT 04/M04 A303 RMK A01 T00411044  RH  054%=      5-min Rain = 0
KRO1 201619Z 18008KT 04/M04 A303 RMK A01 T00411043  RH  054%=      5-min Rain = 0
KRO1 201620Z 18008KT 04/M04 A303 RMK A01 T00431042  RH  054%=      5-min Rain = 0
KRO1 201621Z 18009KT 04/M04 A303 RMK A01 T00431044  RH  053%=      5-min Rain = 0
KRO1 201622Z 18008KT 04/M05 A303 RMK A01 T00431045  RH  053%=      5-min Rain = 0
KRO1 201623Z 18008KT 04/M05 A303 RMK A01 T00421045  RH  053%=      5-min Rain = 0
KRO1 201624Z 18008KT 04/M04 A303 RMK A01 T00421042  RH  054%=      5-min Rain = 0
KRO1 201625Z 18007KT 04/M04 A303 RMK A01 T00431043  RH  053%=      5-min Rain = 0
KRO1 201626Z 18007KT 04/M04 A303 RMK A01 T00431041  RH  054%=      5-min Rain = 0
KRO1 201627Z 17006KT 04/M04 A303 RMK A01 T00441041  RH  054%=      5-min Rain = 0
KRO1 201628Z 17007KT 04/M04 A303 RMK A01 T00441041  RH  054%=      5-min Rain = 0
KRO1 201629Z 17007KT 04/M04 A303 RMK A01 T00441042  RH  053%=      5-min Rain = 0
KRO1 201630Z 17004KT 05/M04 A303 RMK A01 T00451040  RH  054%=      5-min Rain = 0
KRO1 201631Z 15007KT 05/M04 A303 RMK A01 T00471037  RH  055%=      5-min Rain = 0
KRO1 201632Z 16005KT 05/M04 A303 RMK A01 T00481039  RH  053%=      5-min Rain = 0
KRO1 201633Z 16006KT 05/M04 A303 RMK A01 T00491037  RH  054%=      5-min Rain = 0
KRO1 201634Z 16007KT 05/M04 A303 RMK A01 T00501038  RH  053%=      5-min Rain = 0
KRO1 201635Z 17006KT 05/M04 A303 RMK A01 T00501040  RH  052%=      5-min Rain = 0
KRO1 201636Z 18007KT 05/M04 A303 RMK A01 T00501037  RH  053%=      5-min Rain = 0
KRO1 201637Z 17009KT 05/M04 A303 RMK A01 T00521042  RH  051%=      5-min Rain = 0
KRO1 201638Z 18011KT 05/M04 A303 RMK A01 T00521044  RH  050%=      5-min Rain = 0
KRO1 201639Z 18011KT 05/M04 A303 RMK A01 T00531042  RH  050%=      5-min Rain = 0
KRO1 201640Z 17011KT 05/M04 A303 RMK A01 T00541042  RH  050%=      5-min Rain = 0
KRO1 201641Z 18010KT 05/M04 A303 RMK A01 T00541043  RH  050%=      5-min Rain = 0
KRO1 201642Z 19009KT 05/M04 A303 RMK A01 T00541042  RH  050%=      5-min Rain = 0
KRO1 201643Z 18009KT 05/M04 A303 RMK A01 T00531044  RH  050%=      5-min Rain = 0
KRO1 201644Z 17009KT 05/M04 A303 RMK A01 T00531043  RH  050%=      5-min Rain = 0
KRO1 201645Z 17008KT 06/M04 A303 RMK A01 T00551037  RH  051%=      5-min Rain = 0
KRO1 201646Z 18007KT 06/M04 A303 RMK A01 T00571037  RH  051%=      5-min Rain = 0
KRO1 201647Z 18008KT 06/M04 A3029 RMK A01 T00591035  RH  051%=      5-min Rain = 0
KRO1 201648Z 20009KT 06/M04 A3029 RMK A01 T00591036  RH  050%=      5-min Rain = 0
KRO1 201649Z 20007KT 06/M04 A3029 RMK A01 T00581039  RH  050%=      5-min Rain = 0
KRO1 201650Z 20008KT 06/M04 A3029 RMK A01 T00571038  RH  050%=      5-min Rain = 0
KRO1 201651Z 18007KT 06/M04 A3029 RMK A01 T00561037  RH  051%=      5-min Rain = 0
KRO1 201652Z 19007KT 06/M04 A3029 RMK A01 T00571035  RH  052%=      5-min Rain = 0
KRO1 201653Z 19007KT 06/M04 A3029 RMK A01 T00581035  RH  051%=      5-min Rain = 0
KRO1 201654Z 17007KT 06/M03 A3029 RMK A01 T00591034  RH  051%=      5-min Rain = 0
KRO1 201655Z 16008KT 06/M03 A3029 RMK A01 T00621033  RH  051%=      5-min Rain = 0
KRO1 201656Z 17009KT 06/M04 A3029 RMK A01 T00631036  RH  049%=      5-min Rain = 0
KRO1 201657Z 17009KT 06/M03 A3029 RMK A01 T00631034  RH  050%=      5-min Rain = 0
KRO1 201658Z 19007KT 06/M03 A3029 RMK A01 T00641034  RH  050%=      5-min Rain = 0
KRO1 201659Z 19007KT 06/M04 A3029 RMK A01 T00621035  RH  050%=      5-min Rain = 0
KRO1 201700Z 19007KT 06/M03 A3029 RMK A01 T00611032  RH  051%=      5-min Rain = 0
KRO1 201701Z 19008KT 06/M03 A3029 RMK A01 T00621032  RH  051%=      5-min Rain = 0
KRO1 201702Z 18010KT 06/M03 A3029 RMK A01 T00641030  RH  051%=      5-min Rain = 0
KRO1 201703Z 17009KT 07/M03 A3029 RMK A01 T00651032  RH  050%=      5-min Rain = 0
KRO1 201704Z 17009KT 07/M04 A3029 RMK A01 T00651035  RH  049%=      5-min Rain = 0
KRO1 201705Z 19008KT 06/M04 A3029 RMK A01 T00641035  RH  049%=      5-min Rain = 0
KRO1 201706Z 18008KT 06/M03 A3029 RMK A01 T00641032  RH  050%=      5-min Rain = 0
KRO1 201707Z 18009KT 07/M03 A3029 RMK A01 T00661030  RH  050%=      5-min Rain = 0
KRO1 201708Z 19009KT 07/M03 A3029 RMK A01 T00681030  RH  050%=      5-min Rain = 0
KRO1 201709Z 18009KT 07/M03 A3028 RMK A01 T00681032  RH  049%=      5-min Rain = 0
KRO1 201710Z 19008KT 07/M03 A3028 RMK A01 T00671033  RH  049%=      5-min Rain = 0
KRO1 201711Z 19007KT 07/M03 A3028 RMK A01 T00681032  RH  049%=      5-min Rain = 0
KRO1 201712Z 18010KT 07/M03 A3028 RMK A01 T00681030  RH  050%=      5-min Rain = 0
KRO1 201713Z 20008KT 07/M03 A3028 RMK A01 T00691030  RH  049%=      5-min Rain = 0
KRO1 201714Z 19008KT 07/M03 A3028 RMK A01 T00691029  RH  050%=      5-min Rain = 0
KRO1 201715Z 19008KT 07/M03 A3028 RMK A01 T00711030  RH  049%=      5-min Rain = 0
KRO1 201716Z 19006KT 07/M03 A3028 RMK A01 T00711030  RH  049%=      5-min Rain = 0
KRO1 201717Z 19006KT 07/M03 A3028 RMK A01 T00721026  RH  050%=      5-min Rain = 0
KRO1 201718Z 19008KT 07/M03 A3028 RMK A01 T00741026  RH  049%=      5-min Rain = 0
KRO1 201719Z 20008KT 08/M03 A3028 RMK A01 T00751028  RH  048%=      5-min Rain = 0
KRO1 201720Z 20008KT 08/M03 A3028 RMK A01 T00751026  RH  049%=      5-min Rain = 0
KRO1 201721Z 18009KT 08/M02 A3028 RMK A01 T00771024  RH  049%=      5-min Rain = 0
KRO1 201722Z 18010KT 08/M03 A3028 RMK A01 T00781027  RH  048%=      5-min Rain = 0
KRO1 201723Z 18010KT 08/M03 A3028 RMK A01 T00781026  RH  048%=      5-min Rain = 0
KRO1 201724Z 19008KT 08/M03 A3028 RMK A01 T00781029  RH  047%=      5-min Rain = 0
KRO1 201725Z 19010KT 08/M03 A3028 RMK A01 T00771029  RH  047%=      5-min Rain = 0
KRO1 201726Z 19008KT 08/M03 A3028 RMK A01 T00771027  RH  048%=      5-min Rain = 0
KRO1 201727Z 19010KT 08/M03 A3028 RMK A01 T00791025  RH  048%=      5-min Rain = 0
KRO1 201728Z 19010KT 08/M03 A3028 RMK A01 T00801027  RH  047%=      5-min Rain = 0
KRO1 201729Z 18009KT 08/M03 A3028 RMK A01 T00801027  RH  047%=      5-min Rain = 0
KRO1 201730Z 18007KT 08/M03 A3028 RMK A01 T00801028  RH  046%=      5-min Rain = 0
KRO1 201731Z 19010KT 08/M02 A3028 RMK A01 T00811024  RH  047%=      5-min Rain = 0
KRO1 201732Z 19011KT 08/M02 A3028 RMK A01 T00841022  RH  047%=      5-min Rain = 0
KRO1 201733Z 20009KT 08/M02 A3027 RMK A01 T00841024  RH  046%=      5-min Rain = 0
KRO1 201734Z 18011KT 09/M02 A3027 RMK A01 T00851022  RH  047%=      5-min Rain = 0
KRO1 201735Z 19010KT 09/M02 A3027 RMK A01 T00861023  RH  046%=      5-min Rain = 0
KRO1 201736Z 19009KT 09/M03 A3027 RMK A01 T00851026  RH  045%=      5-min Rain = 0
KRO1 201737Z 18009KT 08/M02 A3027 RMK A01 T00841023  RH  047%=      5-min Rain = 0
KRO1 201738Z 19009KT 09/M02 A3027 RMK A01 T00861024  RH  046%=      5-min Rain = 0
KRO1 201739Z 19010KT 09/M02 A3027 RMK A01 T00861022  RH  046%=      5-min Rain = 0
KRO1 201740Z 21009KT 09/M02 A3027 RMK A01 T00871022  RH  046%=      5-min Rain = 0
KRO1 201741Z 20010KT 09/M02 A3027 RMK A01 T00881020  RH  047%=      5-min Rain = 0
KRO1 201742Z 19010KT 09/M02 A3027 RMK A01 T00901019  RH  047%=      5-min Rain = 0
KRO1 201743Z 18010KT 09/M02 A3027 RMK A01 T00901020  RH  046%=      5-min Rain = 0
KRO1 201744Z 17010KT 09/M02 A3027 RMK A01 T00911020  RH  046%=      5-min Rain = 0
KRO1 201745Z 18010KT 09/M02 A3026 RMK A01 T00921020  RH  045%=      5-min Rain = 0
KRO1 201746Z 17010KT 09/M02 A3027 RMK A01 T00931018  RH  046%=      5-min Rain = 0
KRO1 201747Z 18009KT 10/M02 A3026 RMK A01 T00951020  RH  045%=      5-min Rain = 0
KRO1 201748Z 18006KT 09/M02 A3026 RMK A01 T00941021  RH  045%=      5-min Rain = 0
KRO1 201749Z 18006KT 09/M02 A3026 RMK A01 T00941021  RH  045%=      5-min Rain = 0
KRO1 201750Z 19008KT 10/M02 A3026 RMK A01 T00951017  RH  045%=      5-min Rain = 0
KRO1 201751Z 19008KT 10/M02 A3026 RMK A01 T00971018  RH  045%=      5-min Rain = 0
KRO1 201752Z 20009KT 10/M02 A3026 RMK A01 T00981018  RH  044%=      5-min Rain = 0
KRO1 201753Z 19011KT 10/M02 A3026 RMK A01 T01001016  RH  044%=      5-min Rain = 0
KRO1 201754Z 20012KT 10/M02 A3026 RMK A01 T01031015  RH  044%=      5-min Rain = 0
KRO1 201755Z 20012KT 11/M02 A3026 RMK A01 T01051017  RH  043%=      5-min Rain = 0
KRO1 201756Z 20011KT 11/M02 A3026 RMK A01 T01061019  RH  042%=      5-min Rain = 0
KRO1 201757Z 20012KT 11/M02 A3026 RMK A01 T01061019  RH  042%=      5-min Rain = 0
KRO1 201758Z 20016KT 11/M02 A3025 RMK A01 T01061020  RH  041%=      5-min Rain = 0
KRO1 201759Z 21016KT 11/M02 A3025 RMK A01 T01061020  RH  041%=      5-min Rain = 0
KRO1 201800Z 20016KT 11/M02 A3025 RMK A01 T01071021  RH  041%=      5-min Rain = 0
KRO1 201801Z 19014KT 11/M02 A3025 RMK A01 T01081020  RH  041%=      5-min Rain = 0
KRO1 201802Z 20013KT 11/M02 A3025 RMK A01 T01081022  RH  040%=      5-min Rain = 0
KRO1 201803Z 19013KT 11/M02 A3025 RMK A01 T01091015  RH  042%=      5-min Rain = 0
KRO1 201804Z 18015G21KT 11/M02 A3025 RMK A01 T01121018  RH  040%=      5-min Rain = 0
KRO1 201805Z 19017KT 11/M02 A3025 RMK A01 T01111021  RH  040%=      5-min Rain = 0
KRO1 201806Z 20014KT 11/M02 A3025 RMK A01 T01091023  RH  040%=      5-min Rain = 0
KRO1 201807Z 20016KT 11/M02 A3025 RMK A01 T01081020  RH  041%=      5-min Rain = 0
KRO1 201808Z 19015KT 11/M02 A3025 RMK A01 T01081021  RH  040%=      5-min Rain = 0
KRO1 201809Z 20016KT 11/M02 A3025 RMK A01 T01081023  RH  040%=      5-min Rain = 0
KRO1 201810Z 19013KT 11/M03 A3025 RMK A01 T01061025  RH  040%=      5-min Rain = 0
KRO1 201811Z 20012KT 11/M03 A3025 RMK A01 T01051025  RH  040%=      5-min Rain = 0
KRO1 201812Z 20011KT 11/M02 A3025 RMK A01 T01071018  RH  042%=      5-min Rain = 0
KRO1 201813Z 19014KT 11/M02 A3025 RMK A01 T01111015  RH  041%=      5-min Rain = 0
KRO1 201814Z 19013KT 11/M02 A3025 RMK A01 T01121020  RH  040%=      5-min Rain = 0
KRO1 201815Z 19013KT 11/M02 A3025 RMK A01 T01121021  RH  039%=      5-min Rain = 0
KRO1 201816Z 21011KT 11/M02 A3025 RMK A01 T01121019  RH  040%=      5-min Rain = 0
KRO1 201817Z 20012KT 11/M02 A3025 RMK A01 T01141017  RH  040%=      5-min Rain = 0
KRO1 201818Z 19011KT 12/M02 A3025 RMK A01 T01161017  RH  039%=      5-min Rain = 0
KRO1 201819Z 20011KT 12/M02 A3024 RMK A01 T01151018  RH  039%=      5-min Rain = 0
KRO1 201820Z 19010KT 12/M02 A3024 RMK A01 T01161015  RH  040%=      5-min Rain = 0
KRO1 201821Z 19013KT 12/M02 A3024 RMK A01 T01181016  RH  039%=      5-min Rain = 0
KRO1 201822Z 20015KT 12/M02 A3024 RMK A01 T01171019  RH  039%=      5-min Rain = 0
KRO1 201823Z 20015KT 12/M02 A3024 RMK A01 T01161020  RH  039%=      5-min Rain = 0
KRO1 201824Z 20014KT 12/M02 A3024 RMK A01 T01161020  RH  039%=      5-min Rain = 0
KRO1 201825Z 20014KT 12/M02 A3024 RMK A01 T01161020  RH  039%=      5-min Rain = 0
KRO1 201826Z 21014KT 12/M02 A3024 RMK A01 T01151022  RH  039%=      5-min Rain = 0
KRO1 201827Z 20014KT 12/M02 A3024 RMK A01 T01151019  RH  039%=      5-min Rain = 0
KRO1 201828Z 20012KT 12/M02 A3024 RMK A01 T01151020  RH  039%=      5-min Rain = 0
KRO1 201829Z 20014KT 12/M02 A3023 RMK A01 T01151020  RH  039%=      5-min Rain = 0
KRO1 201830Z 19012KT 12/M02 A3023 RMK A01 T01161020  RH  039%=      5-min Rain = 0
KRO1 201831Z 20011KT 12/M02 A3023 RMK A01 T01151022  RH  038%=      5-min Rain = 0
KRO1 201832Z 19010KT 12/M02 A3023 RMK A01 T01151019  RH  039%=      5-min Rain = 0
KRO1 201833Z 20012KT 12/M02 A3023 RMK A01 T01171019  RH  039%=      5-min Rain = 0
KRO1 201834Z 19013KT 12/M02 A3023 RMK A01 T01171020  RH  038%=      5-min Rain = 0
KRO1 201835Z 21013KT 12/M02 A3023 RMK A01 T01191018  RH  039%=      5-min Rain = 0
KRO1 201836Z 20013KT 12/M02 A3023 RMK A01 T01201018  RH  038%=      5-min Rain = 0
KRO1 201837Z 20012KT 12/M02 A3023 RMK A01 T01221016  RH  039%=      5-min Rain = 0
KRO1 201838Z 20011KT 12/M02 A3023 RMK A01 T01231017  RH  038%=      5-min Rain = 0
KRO1 201839Z 19010KT 12/M02 A3023 RMK A01 T01221017  RH  038%=      5-min Rain = 0
KRO1 201840Z 20012KT 12/M02 A3023 RMK A01 T01211019  RH  038%=      5-min Rain = 0
KRO1 201841Z 20013KT 12/M02 A3023 RMK A01 T01211020  RH  038%=      5-min Rain = 0
KRO1 201842Z 20013KT 12/M02 A3023 RMK A01 T01211019  RH  038%=      5-min Rain = 0
KRO1 201843Z 20010KT 12/M02 A3023 RMK A01 T01211019  RH  038%=      5-min Rain = 0
KRO1 201844Z 19010KT 12/M02 A3022 RMK A01 T01211016  RH  038%=      5-min Rain = 0
KRO1 201845Z 20009KT 12/M02 A3022 RMK A01 T01231017  RH  038%=      5-min Rain = 0
KRO1 201846Z 20011KT 12/M02 A3022 RMK A01 T01241016  RH  038%=      5-min Rain = 0
KRO1 201847Z 21014KT 13/M01 A3022 RMK A01 T01261013  RH  038%=      5-min Rain = 0
KRO1 201848Z 21012KT 13/M02 A3022 RMK A01 T01281020  RH  036%=      5-min Rain = 0
KRO1 201849Z 21014KT 13/M02 A3022 RMK A01 T01271020  RH  036%=      5-min Rain = 0
KRO1 201850Z 21014KT 13/M02 A3022 RMK A01 T01271018  RH  036%=      5-min Rain = 0
KRO1 201851Z 21015KT 13/M02 A3022 RMK A01 T01281020  RH  036%=      5-min Rain = 0
KRO1 201852Z 21013KT 13/M02 A3022 RMK A01 T01271021  RH  036%=      5-min Rain = 0
KRO1 201853Z 21013KT 13/M02 A3022 RMK A01 T01261020  RH  036%=      5-min Rain = 0
KRO1 201854Z 21013KT 13/M02 A3022 RMK A01 T01281018  RH  036%=      5-min Rain = 0
KRO1 201855Z 22012KT 13/M02 A3022 RMK A01 T01281019  RH  036%=      5-min Rain = 0
KRO1 201856Z 21013KT 13/M02 A3022 RMK A01 T01281020  RH  036%=      5-min Rain = 0
KRO1 201857Z 21011KT 13/M02 A3022 RMK A01 T01301019  RH  036%=      5-min Rain = 0
KRO1 201858Z 21014KT 13/M02 A3022 RMK A01 T01291019  RH  036%=      5-min Rain = 0
KRO1 201859Z 21016KT 13/M02 A3021 RMK A01 T01311017  RH  036%=      5-min Rain = 0
KRO1 201900Z 21015KT 13/M02 A3021 RMK A01 T01321018  RH  035%=      5-min Rain = 0
KRO1 201901Z 20013KT 13/M02 A3021 RMK A01 T01311020  RH  035%=      5-min Rain = 0
KRO1 201902Z 19014KT 13/M02 A3021 RMK A01 T01301019  RH  036%=      5-min Rain = 0
KRO1 201903Z 19012KT 13/M02 A3021 RMK A01 T01291018  RH  036%=      5-min Rain = 0
KRO1 201904Z 19014KT 13/M02 A3021 RMK A01 T01301018  RH  036%=      5-min Rain = 0
KRO1 201905Z 19011KT 13/M02 A3021 RMK A01 T01301018  RH  036%=      5-min Rain = 0
KRO1 201906Z 20014KT 13/M01 A3021 RMK A01 T01301014  RH  037%=      5-min Rain = 0
KRO1 201907Z 21014KT 13/M02 A302 RMK A01 T01321015  RH  036%=      5-min Rain = 0
KRO1 201908Z 21013KT 13/M02 A302 RMK A01 T01321018  RH  035%=      5-min Rain = 0
KRO1 201909Z 20014KT 13/M02 A302 RMK A01 T01321017  RH  036%=      5-min Rain = 0
KRO1 201910Z 21014KT 13/M02 A302 RMK A01 T01301020  RH  035%=      5-min Rain = 0
KRO1 201911Z 21012KT 13/M02 A302 RMK A01 T01281022  RH  035%=      5-min Rain = 0
KRO1 201912Z 20013KT 13/M02 A302 RMK A01 T01261021  RH  036%=      5-min Rain = 0
KRO1 201913Z 20013KT 13/M02 A302 RMK A01 T01281016  RH  037%=      5-min Rain = 0
KRO1 201914Z 19016KT 13/M02 A302 RMK A01 T01311015  RH  036%=      5-min Rain = 0
KRO1 201915Z 19015KT 13/M02 A302 RMK A01 T01311016  RH  036%=      5-min Rain = 0
KRO1 201916Z 19016KT 13/M02 A302 RMK A01 T01311018  RH  036%=      5-min Rain = 0
KRO1 201917Z 19015KT 13/M02 A302 RMK A01 T01311016  RH  036%=      5-min Rain = 0
KRO1 201918Z 18013KT 13/M02 A302 RMK A01 T01311017  RH  036%=      5-min Rain = 0
KRO1 201919Z 19012KT 13/M01 A3019 RMK A01 T01321012  RH  037%=      5-min Rain = 0
KRO1 201920Z 20012KT 13/M01 A3019 RMK A01 T01341011  RH  037%=      5-min Rain = 0
KRO1 201921Z 20014KT 14/M01 A3019 RMK A01 T01351013  RH  036%=      5-min Rain = 0
KRO1 201922Z 21012KT 13/M02 A3019 RMK A01 T01331019  RH  035%=      5-min Rain = 0
KRO1 201923Z 19012KT 13/M02 A3019 RMK A01 T01321016  RH  036%=      5-min Rain = 0
KRO1 201924Z 20013KT 13/M02 A3019 RMK A01 T01331015  RH  036%=      5-min Rain = 0
KRO1 201925Z 20015KT 14/M02 A3019 RMK A01 T01351016  RH  035%=      5-min Rain = 0
KRO1 201926Z 21011KT 14/M01 A3019 RMK A01 T01351014  RH  036%=      5-min Rain = 0
KRO1 201927Z 21012KT 14/M02 A3019 RMK A01 T01361015  RH  035%=      5-min Rain = 0
KRO1 201928Z 22013KT 14/M02 A3019 RMK A01 T01361015  RH  035%=      5-min Rain = 0
KRO1 201929Z 21013KT 14/M01 A3019 RMK A01 T01381014  RH  035%=      5-min Rain = 0
KRO1 201930Z 20012KT 14/M02 A3019 RMK A01 T01391015  RH  034%=      5-min Rain = 0
KRO1 201931Z 20011KT 14/M01 A3019 RMK A01 T01391014  RH  035%=      5-min Rain = 0
KRO1 201932Z 20012KT 14/M01 A3019 RMK A01 T01421008  RH  036%=      5-min Rain = 0
KRO1 201933Z 21013KT 14/M01 A3019 RMK A01 T01431014  RH  034%=      5-min Rain = 0
KRO1 201934Z 21015KT 14/M02 A3019 RMK A01 T01401017  RH  034%=      5-min Rain = 0
KRO1 201935Z 19015KT 14/M02 A3019 RMK A01 T01391016  RH  034%=      5-min Rain = 0
KRO1 201936Z 21013KT 14/M02 A3019 RMK A01 T01381016  RH  034%=      5-min Rain = 0
KRO1 201937Z 21012KT 14/M01 A3018 RMK A01 T01391013  RH  035%=      5-min Rain = 0
KRO1 201938Z 21014KT 14/M01 A3018 RMK A01 T01421012  RH  035%=      5-min Rain = 0
KRO1 201939Z 21016KT 14/M01 A3018 RMK A01 T01431013  RH  034%=      5-min Rain = 0
KRO1 201940Z 21015KT 14/M01 A3018 RMK A01 T01421014  RH  034%=      5-min Rain = 0
KRO1 201941Z 21016KT 14/M02 A3018 RMK A01 T01411015  RH  034%=      5-min Rain = 0
KRO1 201942Z 21013KT 14/M02 A3018 RMK A01 T01391018  RH  034%=      5-min Rain = 0
KRO1 201943Z 22011KT 14/M01 A3018 RMK A01 T01381014  RH  035%=      5-min Rain = 0
KRO1 201944Z 20012KT 14/M01 A3018 RMK A01 T01401011  RH  035%=      5-min Rain = 0
KRO1 201945Z 22012KT 14/M01 A3017 RMK A01 T01411011  RH  035%=      5-min Rain = 0
KRO1 201946Z 21015KT 14/M02 A3017 RMK A01 T01401019  RH  033%=      5-min Rain = 0
KRO1 201947Z 20015KT 14/M02 A3017 RMK A01 T01381017  RH  034%=      5-min Rain = 0
KRO1 201948Z 21014KT 14/M02 A3017 RMK A01 T01371017  RH  034%=      5-min Rain = 0
KRO1 201949Z 22012KT 14/M02 A3017 RMK A01 T01371017  RH  034%=      5-min Rain = 0
KRO1 201950Z 20009KT 14/M01 A3017 RMK A01 T01361014  RH  035%=      5-min Rain = 0
KRO1 201951Z 21010KT 14/M01 A3017 RMK A01 T01371014  RH  035%=      5-min Rain = 0
KRO1 201952Z 20010G15KT 14/M02 A3017 RMK A01 T01371016  RH  035%=      5-min Rain = 0
KRO1 201953Z 21010KT 14/M01 A3017 RMK A01 T01361012  RH  036%=      5-min Rain = 0
KRO1 201954Z 22012KT 14/M02 A3017 RMK A01 T01381015  RH  035%=      5-min Rain = 0
KRO1 201955Z 21011KT 14/M02 A3017 RMK A01 T01371017  RH  035%=      5-min Rain = 0
KRO1 201956Z 19012KT 14/M01 A3017 RMK A01 T01361013  RH  036%=      5-min Rain = 0
KRO1 201957Z 19015KT 14/M01 A3017 RMK A01 T01361014  RH  035%=      5-min Rain = 0
KRO1 201958Z 20013KT 14/M02 A3017 RMK A01 T01371015  RH  035%=      5-min Rain = 0
KRO1 201959Z 20015KT 14/M02 A3016 RMK A01 T01361015  RH  035%=      5-min Rain = 0
KRO1 202000Z 20011KT 14/M01 A3017 RMK A01 T01351014  RH  036%=      5-min Rain = 0
KRO1 202001Z 20010KT 14/M01 A3017 RMK A01 T01351013  RH  036%=      5-min Rain = 0
KRO1 202002Z 20009KT 14/M01 A3017 RMK A01 T01351013  RH  036%=      5-min Rain = 0
KRO1 202003Z 21011KT 14/M01 A3016 RMK A01 T01371010  RH  036%=      5-min Rain = 0
KRO1 202004Z 21012KT 14/M01 A3016 RMK A01 T01381011  RH  036%=      5-min Rain = 0
KRO1 202005Z 21011KT 14/M01 A3016 RMK A01 T01411012  RH  035%=      5-min Rain = 0
KRO1 202006Z 20012KT 14/M01 A3016 RMK A01 T01421009  RH  035%=      5-min Rain = 0
KRO1 202007Z 20011KT 14/M01 A3016 RMK A01 T01431005  RH  036%=      5-min Rain = 0
KRO1 202008Z 20012KT 14/M01 A3016 RMK A01 T01431009  RH  035%=      5-min Rain = 0
KRO1 202009Z 20011G16KT 14/M01 A3016 RMK A01 T01401013  RH  035%=      5-min Rain = 0
KRO1 202010Z 20015KT 14/M01 A3016 RMK A01 T01381013  RH  035%=      5-min Rain = 0
KRO1 202011Z 19015KT 14/M01 A3016 RMK A01 T01381014  RH  035%=      5-min Rain = 0
KRO1 202012Z 20012KT 14/M01 A3016 RMK A01 T01381013  RH  035%=      5-min Rain = 0
KRO1 202013Z 20013KT 14/M01 A3016 RMK A01 T01381011  RH  036%=      5-min Rain = 0
KRO1 202014Z 20010KT 14/M02 A3016 RMK A01 T01381015  RH  035%=      5-min Rain = 0
KRO1 202015Z 20010KT 14/M01 A3016 RMK A01 T01381010  RH  036%=      5-min Rain = 0
KRO1 202016Z 20011KT 14/M01 A3016 RMK A01 T01401007  RH  036%=      5-min Rain = 0
KRO1 202017Z 22012KT 14/M01 A3016 RMK A01 T01411011  RH  035%=      5-min Rain = 0
KRO1 202018Z 22013KT 14/M01 A3016 RMK A01 T01421014  RH  034%=      5-min Rain = 0
KRO1 202019Z 21012KT 14/M02 A3015 RMK A01 T01411015  RH  034%=      5-min Rain = 0
KRO1 202020Z 21011KT 14/M01 A3015 RMK A01 T01401014  RH  034%=      5-min Rain = 0
KRO1 202021Z 21012KT 14/M01 A3015 RMK A01 T01401013  RH  035%=      5-min Rain = 0
KRO1 202022Z 20011KT 14/M01 A3015 RMK A01 T01411013  RH  035%=      5-min Rain = 0
KRO1 202023Z 20009KT 14/M01 A3015 RMK A01 T01411012  RH  035%=      5-min Rain = 0
KRO1 202024Z 21011KT 14/M01 A3015 RMK A01 T01431007  RH  036%=      5-min Rain = 0
KRO1 202025Z 21011KT 15/M01 A3015 RMK A01 T01461008  RH  035%=      5-min Rain = 0
KRO1 202026Z 19011KT 15/M01 A3016 RMK A01 T01481007  RH  035%=      5-min Rain = 0
KRO1 202027Z 20011KT 15/M01 A3016 RMK A01 T01481009  RH  034%=      5-min Rain = 0
KRO1 202028Z 20012KT 15/M01 A3015 RMK A01 T01491009  RH  034%=      5-min Rain = 0
KRO1 202029Z 20012KT 15/M01 A3016 RMK A01 T01491010  RH  034%=      5-min Rain = 0
KRO1 202030Z 19012KT 15/M01 A3016 RMK A01 T01461013  RH  034%=      5-min Rain = 0
KRO1 202031Z 19012KT 15/M01 A3016 RMK A01 T01451011  RH  034%=      5-min Rain = 0
KRO1 202032Z 21012KT 15/M01 A3015 RMK A01 T01461009  RH  034%=      5-min Rain = 0
KRO1 202033Z 20011KT 15/M00 A3015 RMK A01 T01481004  RH  035%=      5-min Rain = 0
KRO1 202034Z 20012KT 15/M01 A3015 RMK A01 T01511008  RH  034%=      5-min Rain = 0
KRO1 202035Z 19010KT 15/M01 A3015 RMK A01 T01511008  RH  034%=      5-min Rain = 0
KRO1 202036Z 19011KT 15/M01 A3015 RMK A01 T01531007  RH  034%=      5-min Rain = 0
KRO1 202037Z 20013KT 15/M01 A3015 RMK A01 T01521008  RH  033%=      5-min Rain = 0
KRO1 202038Z 20012KT 15/M01 A3015 RMK A01 T01501011  RH  033%=      5-min Rain = 0
KRO1 202039Z 19011KT 15/M01 A3015 RMK A01 T01491009  RH  034%=      5-min Rain = 0
KRO1 202040Z 20012KT 15/M01 A3014 RMK A01 T01501005  RH  035%=      5-min Rain = 0
KRO1 202041Z 20013KT 15/M01 A3014 RMK A01 T01531005  RH  034%=      5-min Rain = 0
KRO1 202042Z 19012KT 15/M01 A3014 RMK A01 T01511011  RH  033%=      5-min Rain = 0
KRO1 202043Z 19012KT 15/M01 A3014 RMK A01 T01501010  RH  033%=      5-min Rain = 0
KRO1 202044Z 19014KT 15/M01 A3014 RMK A01 T01511005  RH  034%=      5-min Rain = 0
KRO1 202045Z 19014KT 15/M01 A3014 RMK A01 T01531008  RH  033%=      5-min Rain = 0
KRO1 202046Z 19014KT 15/M01 A3014 RMK A01 T01521008  RH  033%=      5-min Rain = 0
KRO1 202047Z 18011KT 15/M01 A3014 RMK A01 T01511010  RH  033%=      5-min Rain = 0
KRO1 202048Z 18010KT 15/M00 A3014 RMK A01 T01521003  RH  035%=      5-min Rain = 0
KRO1 202049Z 18014KT 16/M01 A3014 RMK A01 T01551005  RH  033%=      5-min Rain = 0
KRO1 202050Z 18012KT 15/M01 A3014 RMK A01 T01541009  RH  033%=      5-min Rain = 0
KRO1 202051Z 19012KT 15/M01 A3014 RMK A01 T01521009  RH  033%=      5-min Rain = 0
KRO1 202052Z 18011KT 15/M01 A3014 RMK A01 T01511009  RH  033%=      5-min Rain = 0
KRO1 202053Z 18012KT 15/M01 A3014 RMK A01 T01511008  RH  034%=      5-min Rain = 0
KRO1 202054Z 19012KT 15/M01 A3014 RMK A01 T01531009  RH  033%=      5-min Rain = 0
KRO1 202055Z 19012KT 15/M01 A3014 RMK A01 T01521007  RH  033%=      5-min Rain = 0
KRO1 202056Z 19010KT 15/M01 A3014 RMK A01 T01521010  RH  033%=      5-min Rain = 0
KRO1 202057Z 19012KT 15/M01 A3014 RMK A01 T01511009  RH  033%=      5-min Rain = 0
KRO1 202058Z 19010KT 15/M01 A3014 RMK A01 T01501008  RH  034%=      5-min Rain = 0
KRO1 202059Z 18007KT 15/M01 A3014 RMK A01 T01491008  RH  034%=      5-min Rain = 0
KRO1 202100Z 18009KT 15/M01 A3014 RMK A01 T01501007  RH  034%=      5-min Rain = 0
KRO1 202101Z 18011KT 15/M01 A3014 RMK A01 T01511007  RH  034%=      5-min Rain = 0
KRO1 202102Z 18009KT 15/M01 A3014 RMK A01 T01511006  RH  034%=      5-min Rain = 0
KRO1 202103Z 17010KT 15/M01 A3014 RMK A01 T01521006  RH  034%=      5-min Rain = 0
KRO1 202104Z 18011KT 15/M01 A3013 RMK A01 T01521006  RH  034%=      5-min Rain = 0
KRO1 202105Z 17011KT 15/M01 A3013 RMK A01 T01521005  RH  034%=      5-min Rain = 0
KRO1 202106Z 17010KT 15/M01 A3013 RMK A01 T01531007  RH  033%=      5-min Rain = 0
KRO1 202107Z 17010KT 15/M01 A3013 RMK A01 T01521006  RH  034%=      5-min Rain = 0
KRO1 202108Z 17010KT 15/M00 A3013 RMK A01 T01531004  RH  034%=      5-min Rain = 0
KRO1 202109Z 17009KT 15/M01 A3013 RMK A01 T01531008  RH  033%=      5-min Rain = 0
KRO1 202110Z 17010KT 15/M01 A3013 RMK A01 T01531006  RH  034%=      5-min Rain = 0
KRO1 202111Z 18011KT 15/M01 A3013 RMK A01 T01541005  RH  034%=      5-min Rain = 0
KRO1 202112Z 18013KT 16/M01 A3013 RMK A01 T01561005  RH  033%=      5-min Rain = 0
KRO1 202113Z 18012KT 16/M01 A3013 RMK A01 T01561007  RH  033%=      5-min Rain = 0
KRO1 202114Z 19012KT 16/M01 A3013 RMK A01 T01551006  RH  033%=      5-min Rain = 0
KRO1 202115Z 18012KT 16/M01 A3013 RMK A01 T01551006  RH  033%=      5-min Rain = 0
KRO1 202116Z 19013KT 16/M01 A3012 RMK A01 T01551006  RH  033%=      5-min Rain = 0
KRO1 202117Z 19013KT 16/M01 A3012 RMK A01 T01561005  RH  033%=      5-min Rain = 0
KRO1 202118Z 19011KT 16/M01 A3012 RMK A01 T01561005  RH  033%=      5-min Rain = 0
KRO1 202119Z 19012KT 16/M01 A3012 RMK A01 T01551005  RH  033%=      5-min Rain = 0
KRO1 202120Z 17011KT 16/M01 A3012 RMK A01 T01551006  RH  033%=      5-min Rain = 0
KRO1 202121Z 18013KT 16/M01 A3012 RMK A01 T01551007  RH  033%=      5-min Rain = 0
KRO1 202122Z 18013KT 16/M01 A3012 RMK A01 T01561006  RH  033%=      5-min Rain = 0
KRO1 202123Z 20014KT 16/M01 A3012 RMK A01 T01561006  RH  033%=      5-min Rain = 0
KRO1 202124Z 20014KT 16/M01 A3012 RMK A01 T01561007  RH  033%=      5-min Rain = 0
KRO1 202125Z 20014KT 16/M01 A3012 RMK A01 T01561008  RH  033%=      5-min Rain = 0
KRO1 202126Z 19014KT 16/M01 A3012 RMK A01 T01561007  RH  033%=      5-min Rain = 0
KRO1 202127Z 19013KT 16/M01 A3012 RMK A01 T01561005  RH  033%=      5-min Rain = 0
KRO1 202128Z 18011KT 16/M00 A3012 RMK A01 T01571004  RH  033%=      5-min Rain = 0
KRO1 202129Z 18012KT 16/M00 A3012 RMK A01 T01581002  RH  034%=      5-min Rain = 0
KRO1 202130Z 17012KT 16/M00 A3012 RMK A01 T01591004  RH  033%=      5-min Rain = 0
KRO1 202131Z 18013KT 16/M01 A3012 RMK A01 T01591005  RH  033%=      5-min Rain = 0
KRO1 202132Z 18010KT 16/M00 A3012 RMK A01 T01591001  RH  034%=      5-min Rain = 0
KRO1 202133Z 17011KT 16/M01 A3012 RMK A01 T01591005  RH  033%=      5-min Rain = 0
KRO1 202134Z 17012KT 16/M01 A3012 RMK A01 T01581005  RH  033%=      5-min Rain = 0
KRO1 202135Z 17013KT 16/M01 A3012 RMK A01 T01571005  RH  033%=      5-min Rain = 0
KRO1 202136Z 17013KT 16/M01 A3012 RMK A01 T01571005  RH  033%=      5-min Rain = 0
KRO1 202137Z 16013KT 16/M01 A3012 RMK A01 T01571006  RH  033%=      5-min Rain = 0
KRO1 202138Z 17016KT 16/M01 A3012 RMK A01 T01571007  RH  033%=      5-min Rain = 0
KRO1 202139Z 18015KT 16/M01 A3012 RMK A01 T01571006  RH  033%=      5-min Rain = 0
KRO1 202140Z 17012KT 16/M00 A3012 RMK A01 T01561004  RH  033%=      5-min Rain = 0
KRO1 202141Z 17013KT 16/M01 A3012 RMK A01 T01571005  RH  033%=      5-min Rain = 0
KRO1 202142Z 17014KT 16/M01 A3012 RMK A01 T01571006  RH  033%=      5-min Rain = 0
KRO1 202143Z 18014KT 16/M01 A3012 RMK A01 T01571007  RH  033%=      5-min Rain = 0
KRO1 202144Z 19013KT 16/M00 A3012 RMK A01 T01571004  RH  033%=      5-min Rain = 0
KRO1 202145Z 18013KT 16/M00 A3012 RMK A01 T01571003  RH  034%=      5-min Rain = 0
KRO1 202146Z 17014KT 16/M00 A3011 RMK A01 T01581004  RH  033%=      5-min Rain = 0
KRO1 202147Z 18014KT 16/M00 A3011 RMK A01 T01591003  RH  033%=      5-min Rain = 0
KRO1 202148Z 18016KT 16/M01 A3011 RMK A01 T01601005  RH  032%=      5-min Rain = 0
KRO1 202149Z 18016KT 16/M01 A3011 RMK A01 T01601006  RH  032%=      5-min Rain = 0
KRO1 202150Z 18016KT 16/M00 A3011 RMK A01 T01601004  RH  033%=      5-min Rain = 0
KRO1 202151Z 18016KT 16/M00 A3011 RMK A01 T01591003  RH  033%=      5-min Rain = 0
KRO1 202152Z 17017KT 16/M00 A3011 RMK A01 T01591004  RH  033%=      5-min Rain = 0
KRO1 202153Z 18015KT 16/M01 A3011 RMK A01 T01591005  RH  033%=      5-min Rain = 0
KRO1 202154Z 18015KT 16/M00 A3011 RMK A01 T01601004  RH  033%=      5-min Rain = 0
KRO1 202155Z 17015KT 16/M01 A3011 RMK A01 T01611005  RH  032%=      5-min Rain = 0
KRO1 202156Z 18016KT 16/M01 A3011 RMK A01 T01611005  RH  032%=      5-min Rain = 0
KRO1 202157Z 18014KT 16/M00 A3011 RMK A01 T01621004  RH  032%=      5-min Rain = 0
KRO1 202158Z 18014KT 16/M00 A3011 RMK A01 T01631003  RH  032%=      5-min Rain = 0
KRO1 202159Z 18016KT 16/M00 A3011 RMK A01 T01621004  RH  032%=      5-min Rain = 0
KRO1 202200Z 18012KT 16/M00 A3011 RMK A01 T01621004  RH  032%=      5-min Rain = 0
KRO1 202201Z 18013KT 16/M00 A3011 RMK A01 T01631001  RH  033%=      5-min Rain = 0
KRO1 202202Z 18015KT 16/M00 A3011 RMK A01 T01621004  RH  032%=      5-min Rain = 0
KRO1 202203Z 18015KT 16/M00 A3011 RMK A01 T01631002  RH  033%=      5-min Rain = 0
KRO1 202204Z 18014KT 16/M00 A3011 RMK A01 T01621003  RH  032%=      5-min Rain = 0
KRO1 202205Z 18013KT 16/M00 A3011 RMK A01 T01621002  RH  033%=      5-min Rain = 0
KRO1 202206Z 18012KT 16/M00 A3011 RMK A01 T01621001  RH  033%=      5-min Rain = 0
KRO1 202207Z 17011KT 16/00 A3011 RMK A01 T01630002  RH  033%=      5-min Rain = 0
KRO1 202208Z 17014KT 16/00 A3011 RMK A01 T01640000  RH  033%=      5-min Rain = 0
KRO1 202209Z 18011KT 17/M00 A3011 RMK A01 T01651001  RH  032%=      5-min Rain = 0
KRO1 202210Z 17014KT 16/00 A3011 RMK A01 T016400-0  RH  033%=      5-min Rain = 0
KRO1 202211Z 16013KT 17/M00 A3011 RMK A01 T01651003  RH  032%=      5-min Rain = 0
KRO1 202212Z 17013KT 16/M00 A3011 RMK A01 T01641002  RH  032%=      5-min Rain = 0
KRO1 202213Z 17011KT 16/M00 A3011 RMK A01 T01641001  RH  032%=      5-min Rain = 0
KRO1 202214Z 17011KT 16/M00 A3011 RMK A01 T01641001  RH  033%=      5-min Rain = 0
KRO1 202215Z 18014KT 17/00 A3011 RMK A01 T01660000  RH  032%=      5-min Rain = 0
KRO1 202216Z 19015KT 17/00 A301 RMK A01 T01670000  RH  032%=      5-min Rain = 0
KRO1 202217Z 19014KT 17/M01 A301 RMK A01 T01671005  RH  031%=      5-min Rain = 0
KRO1 202218Z 19012KT 17/M01 A301 RMK A01 T01651005  RH  031%=      5-min Rain = 0
KRO1 202219Z 19011KT 17/00 A301 RMK A01 T016500-0  RH  033%=      5-min Rain = 0
KRO1 202220Z 18016KT 17/M00 A301 RMK A01 T01651001  RH  032%=      5-min Rain = 0
KRO1 202221Z 18015KT 17/M01 A301 RMK A01 T01661006  RH  031%=      5-min Rain = 0
KRO1 202222Z 18013KT 17/M01 A301 RMK A01 T01661006  RH  031%=      5-min Rain = 0
KRO1 202223Z 19013KT 17/M00 A301 RMK A01 T01671004  RH  031%=      5-min Rain = 0
KRO1 202224Z 19013KT 17/M00 A301 RMK A01 T01671002  RH  032%=      5-min Rain = 0
KRO1 202225Z 19013KT 17/M00 A301 RMK A01 T01671001  RH  032%=      5-min Rain = 0
KRO1 202226Z 18012KT 17/M00 A301 RMK A01 T01671001  RH  032%=      5-min Rain = 0
KRO1 202227Z 17012KT 17/00 A301 RMK A01 T016800-0  RH  032%=      5-min Rain = 0
KRO1 202228Z 18013KT 17/M00 A301 RMK A01 T01691001  RH  032%=      5-min Rain = 0
KRO1 202229Z 18011KT 17/M00 A301 RMK A01 T01691004  RH  031%=      5-min Rain = 0
KRO1 202230Z 18013KT 17/M00 A301 RMK A01 T01681003  RH  031%=      5-min Rain = 0
KRO1 202231Z 18012KT 17/M00 A301 RMK A01 T01691002  RH  031%=      5-min Rain = 0
KRO1 202232Z 18014KT 17/M00 A301 RMK A01 T01701001  RH  031%=      5-min Rain = 0
KRO1 202233Z 18014KT 17/M00 A301 RMK A01 T01701004  RH  031%=      5-min Rain = 0
KRO1 202234Z 18012KT 17/M01 A301 RMK A01 T01691005  RH  031%=      5-min Rain = 0
KRO1 202235Z 18012KT 17/M00 A301 RMK A01 T01691002  RH  031%=      5-min Rain = 0
KRO1 202236Z 17011KT 17/M00 A301 RMK A01 T01691002  RH  031%=      5-min Rain = 0
KRO1 202237Z 16012KT 17/M00 A301 RMK A01 T01691002  RH  031%=      5-min Rain = 0
KRO1 202238Z 17012KT 17/M00 A301 RMK A01 T01691001  RH  031%=      5-min Rain = 0
KRO1 202239Z 18011KT 17/00 A301 RMK A01 T016900-0  RH  032%=      5-min Rain = 0
KRO1 202240Z 18012KT 17/00 A301 RMK A01 T017000-0  RH  032%=      5-min Rain = 0
KRO1 202241Z 17013KT 17/M00 A301 RMK A01 T01701001  RH  031%=      5-min Rain = 0
KRO1 202242Z 17013KT 17/M00 A301 RMK A01 T01701003  RH  031%=      5-min Rain = 0
KRO1 202243Z 18012KT 17/M01 A301 RMK A01 T01701005  RH  031%=      5-min Rain = 0
KRO1 202244Z 17011KT 17/M00 A301 RMK A01 T01691001  RH  031%=      5-min Rain = 0
KRO1 202245Z 17012KT 17/M00 A301 RMK A01 T01691002  RH  031%=      5-min Rain = 0
KRO1 202246Z 17013KT 17/M00 A301 RMK A01 T01691003  RH  031%=      5-min Rain = 0
KRO1 202247Z 17011KT 17/M00 A301 RMK A01 T01681003  RH  031%=      5-min Rain = 0
KRO1 202248Z 18013KT 17/M00 A301 RMK A01 T01681001  RH  032%=      5-min Rain = 0
KRO1 202249Z 19012KT 17/00 A301 RMK A01 T016800-0  RH  032%=      5-min Rain = 0
KRO1 202250Z 18012KT 17/00 A301 RMK A01 T01690002  RH  032%=      5-min Rain = 0
KRO1 202251Z 19013KT 17/M00 A301 RMK A01 T01691003  RH  031%=      5-min Rain = 0
KRO1 202252Z 19015KT 17/M00 A301 RMK A01 T01691003  RH  031%=      5-min Rain = 0
KRO1 202253Z 18014KT 17/M01 A301 RMK A01 T01691006  RH  030%=      5-min Rain = 0
KRO1 202254Z 18014KT 17/M01 A301 RMK A01 T01691008  RH  030%=      5-min Rain = 0
KRO1 202255Z 18014KT 17/M01 A301 RMK A01 T01691008  RH  030%=      5-min Rain = 0
KRO1 202256Z 19014KT 17/M01 A3009 RMK A01 T01691008  RH  030%=      5-min Rain = 0
KRO1 202257Z 18013KT 17/M01 A301 RMK A01 T01691006  RH  030%=      5-min Rain = 0
KRO1 202258Z 17013KT 17/M01 A301 RMK A01 T01691005  RH  031%=      5-min Rain = 0
KRO1 202259Z 17015KT 17/M00 A3009 RMK A01 T01691004  RH  031%=      5-min Rain = 0
KRO1 202300Z 17012KT 17/M00 A3009 RMK A01 T01681002  RH  032%=      5-min Rain = 0
KRO1 202301Z 17014KT 17/M00 A3009 RMK A01 T01681001  RH  032%=      5-min Rain = 0
KRO1 202302Z 17013KT 17/M00 A3009 RMK A01 T01671003  RH  031%=      5-min Rain = 0
KRO1 202303Z 17013KT 17/M00 A3009 RMK A01 T01671002  RH  032%=      5-min Rain = 0
KRO1 202304Z 17013KT 17/M00 A3009 RMK A01 T01671002  RH  032%=      5-min Rain = 0
KRO1 202305Z 17014KT 17/M00 A3009 RMK A01 T01671003  RH  032%=      5-min Rain = 0
KRO1 202306Z 17011KT 17/M00 A3009 RMK A01 T01661002  RH  032%=      5-min Rain = 0
KRO1 202307Z 17012KT 17/M00 A3009 RMK A01 T01661001  RH  032%=      5-min Rain = 0
KRO1 202308Z 18010KT 17/M00 A3009 RMK A01 T01661001  RH  032%=      5-min Rain = 0
KRO1 202309Z 17010KT 17/00 A3009 RMK A01 T01660001  RH  033%=      5-min Rain = 0
KRO1 202310Z 17013KT 17/00 A3009 RMK A01 T016600-0  RH  032%=      5-min Rain = 0
KRO1 202311Z 17012KT 17/M00 A3009 RMK A01 T01651002  RH  032%=      5-min Rain = 0
KRO1 202312Z 17013KT 17/M00 A3009 RMK A01 T01661002  RH  032%=      5-min Rain = 0
KRO1 202313Z 18012KT 17/00 A3009 RMK A01 T01660000  RH  032%=      5-min Rain = 0
KRO1 202314Z 18012KT 17/00 A3009 RMK A01 T01650000  RH  033%=      5-min Rain = 0
KRO1 202315Z 18012KT 17/00 A3009 RMK A01 T016500-0  RH  033%=      5-min Rain = 0
KRO1 202316Z 18011KT 17/00 A3009 RMK A01 T016500-0  RH  033%=      5-min Rain = 0
KRO1 202317Z 17011KT 16/M00 A3009 RMK A01 T01641001  RH  032%=      5-min Rain = 0
KRO1 202318Z 18011KT 16/M00 A3009 RMK A01 T01641001  RH  032%=      5-min Rain = 0
KRO1 202319Z 18012KT 16/M00 A3009 RMK A01 T01641002  RH  032%=      5-min Rain = 0
KRO1 202320Z 17010KT 16/M00 A3009 RMK A01 T01641003  RH  032%=      5-min Rain = 0
KRO1 202321Z 18011KT 16/M00 A3009 RMK A01 T01641002  RH  032%=      5-min Rain = 0
KRO1 202322Z 18012KT 16/M00 A3009 RMK A01 T01641003  RH  032%=      5-min Rain = 0
KRO1 202323Z 18011KT 16/M01 A3009 RMK A01 T01641005  RH  032%=      5-min Rain = 0
KRO1 202324Z 18010KT 16/M00 A3009 RMK A01 T01641003  RH  032%=      5-min Rain = 0
KRO1 202325Z 18009KT 16/M00 A3009 RMK A01 T01631002  RH  033%=      5-min Rain = 0
KRO1 202326Z 18011KT 16/M00 A3009 RMK A01 T01621001  RH  033%=      5-min Rain = 0
KRO1 202327Z 17010KT 16/M00 A3009 RMK A01 T01621004  RH  032%=      5-min Rain = 0
KRO1 202328Z 18011KT 16/M00 A3009 RMK A01 T01621004  RH  032%=      5-min Rain = 0
KRO1 202329Z 18009KT 16/M01 A3009 RMK A01 T01621005  RH  032%=      5-min Rain = 0
KRO1 202330Z 18010KT 16/M00 A3009 RMK A01 T01621003  RH  032%=      5-min Rain = 0
KRO1 202331Z 18010KT 16/M01 A3009 RMK A01 T01611005  RH  032%=      5-min Rain = 0
KRO1 202332Z 17009KT 16/M00 A3009 RMK A01 T01601004  RH  033%=      5-min Rain = 0
KRO1 202333Z 17009KT 16/M00 A3009 RMK A01 T01601003  RH  033%=      5-min Rain = 0
KRO1 202334Z 17009KT 16/M00 A3009 RMK A01 T01591004  RH  033%=      5-min Rain = 0
KRO1 202335Z 17008KT 16/M00 A3009 RMK A01 T01591003  RH  033%=      5-min Rain = 0
KRO1 202336Z 17008KT 16/M00 A3009 RMK A01 T01591003  RH  033%=      5-min Rain = 0
KRO1 202337Z 17008KT 16/M00 A3009 RMK A01 T01581003  RH  033%=      5-min Rain = 0
KRO1 202338Z 17007KT 16/M00 A3009 RMK A01 T01571002  RH  034%=      5-min Rain = 0
KRO1 202339Z 17008KT 16/M00 A3009 RMK A01 T01561003  RH  034%=      5-min Rain = 0
KRO1 202340Z 17008KT 16/M00 A3009 RMK A01 T01561003  RH  034%=      5-min Rain = 0
KRO1 202341Z 17009KT 16/M00 A3009 RMK A01 T01551003  RH  034%=      5-min Rain = 0
KRO1 202342Z 17009KT 15/M00 A3009 RMK A01 T01541004  RH  034%=      5-min Rain = 0
KRO1 202343Z 17009KT 15/M01 A3009 RMK A01 T01541005  RH  034%=      5-min Rain = 0
KRO1 202344Z 17009KT 15/M00 A3009 RMK A01 T01541004  RH  034%=      5-min Rain = 0
KRO1 202345Z 17009KT 15/M00 A3009 RMK A01 T01531004  RH  034%=      5-min Rain = 0
KRO1 202346Z 17009KT 15/M00 A3009 RMK A01 T01521004  RH  034%=      5-min Rain = 0
KRO1 202347Z 17009KT 15/M01 A3009 RMK A01 T01501005  RH  034%=      5-min Rain = 0
KRO1 202348Z 17009KT 15/M00 A3009 RMK A01 T01501004  RH  035%=      5-min Rain = 0
KRO1 202349Z 17009KT 15/M01 A3009 RMK A01 T01481005  RH  035%=      5-min Rain = 0
KRO1 202350Z 17009KT 15/M00 A3009 RMK A01 T01471004  RH  035%=      5-min Rain = 0
KRO1 202351Z 17009KT 15/M01 A3009 RMK A01 T01451005  RH  036%=      5-min Rain = 0
KRO1 202352Z 17009KT 14/M00 A3009 RMK A01 T01441004  RH  036%=      5-min Rain = 0
KRO1 202353Z 17009KT 14/M01 A3009 RMK A01 T01431005  RH  036%=      5-min Rain = 0
KRO1 202354Z 18009KT 14/M01 A3009 RMK A01 T01421005  RH  036%=      5-min Rain = 0
KRO1 202355Z 17009KT 14/M01 A3009 RMK A01 T01411005  RH  036%=      5-min Rain = 0
KRO1 202356Z 17009KT 14/M01 A3009 RMK A01 T01411005  RH  037%=      5-min Rain = 0
KRO1 202357Z 17009KT 14/M01 A3009 RMK A01 T01401006  RH  037%=      5-min Rain = 0
KRO1 202358Z 17009KT 14/M01 A3009 RMK A01 T01391006  RH  037%=      5-min Rain = 0
KRO1 202359Z 17009KT 14/M01 A3009 RMK A01 T01391006  RH  037%=      5-min Rain = 0
KRO1 210000Z 18009KT 14/M01 A3009 RMK A01 T01381007  RH  037%=      5-min Rain = 0
KRO1 210001Z 18009KT 14/M01 A3009 RMK A01 T01381007  RH  037%=      5-min Rain = 0
KRO1 210002Z 18009KT 14/M01 A3009 RMK A01 T01371007  RH  037%=      5-min Rain = 0
KRO1 210003Z 18009KT 14/M01 A3009 RMK A01 T01361007  RH  037%=      5-min Rain = 0
KRO1 210004Z 18009KT 14/M01 A3009 RMK A01 T01351007  RH  038%=      5-min Rain = 0
KRO1 210005Z 18008KT 13/M01 A3009 RMK A01 T01341007  RH  038%=      5-min Rain = 0
KRO1 210006Z 18008KT 13/M01 A3009 RMK A01 T01331007  RH  038%=      5-min Rain = 0
KRO1 210007Z 18008KT 13/M01 A301 RMK A01 T01321007  RH  038%=      5-min Rain = 0
KRO1 210008Z 18008KT 13/M01 A301 RMK A01 T01311007  RH  039%=      5-min Rain = 0
KRO1 210009Z 18008KT 13/M01 A301 RMK A01 T01291007  RH  039%=      5-min Rain = 0
KRO1 210010Z 18008KT 13/M01 A301 RMK A01 T01281007  RH  039%=      5-min Rain = 0
KRO1 210011Z 17008KT 13/M01 A301 RMK A01 T01271008  RH  039%=      5-min Rain = 0
KRO1 210012Z 17008KT 13/M01 A3009 RMK A01 T01261008  RH  040%=      5-min Rain = 0
KRO1 210013Z 17008KT 13/M01 A3009 RMK A01 T01251008  RH  040%=      5-min Rain = 0
KRO1 210014Z 17008KT 13/M01 A3009 RMK A01 T01251008  RH  040%=      5-min Rain = 0
KRO1 210015Z 17008KT 12/M01 A3009 RMK A01 T01231009  RH  040%=      5-min Rain = 0
KRO1 210016Z 17008KT 12/M01 A3009 RMK A01 T01221009  RH  040%=      5-min Rain = 0
KRO1 210017Z 17008KT 12/M01 A3009 RMK A01 T01211009  RH  041%=      5-min Rain = 0
KRO1 210018Z 17008KT 12/M01 A3009 RMK A01 T01201009  RH  041%=      5-min Rain = 0
KRO1 210019Z 17008KT 12/M01 A3009 RMK A01 T01191009  RH  041%=      5-min Rain = 0
KRO1 210020Z 17008KT 12/M01 A3009 RMK A01 T01191009  RH  041%=      5-min Rain = 0
KRO1 210021Z 17008KT 12/M01 A3009 RMK A01 T01181009  RH  041%=      5-min Rain = 0
KRO1 210022Z 17008KT 12/M01 A3009 RMK A01 T01181009  RH  041%=      5-min Rain = 0
KRO1 210023Z 17008KT 12/M01 A3009 RMK A01 T01171009  RH  041%=      5-min Rain = 0
KRO1 210024Z 17008KT 12/M01 A3009 RMK A01 T01171010  RH  041%=      5-min Rain = 0
KRO1 210025Z 17008KT 12/M01 A3009 RMK A01 T01171010  RH  041%=      5-min Rain = 0
KRO1 210026Z 17008KT 12/M01 A3009 RMK A01 T01161010  RH  041%=      5-min Rain = 0
KRO1 210027Z 17008KT 12/M01 A3009 RMK A01 T01151010  RH  042%=      5-min Rain = 0
KRO1 210028Z 16008KT 11/M01 A3009 RMK A01 T01141010  RH  042%=      5-min Rain = 0
KRO1 210029Z 16008KT 11/M01 A3009 RMK A01 T01131010  RH  043%=      5-min Rain = 0
KRO1 210030Z 16008KT 11/M01 A3009 RMK A01 T01121009  RH  043%=      5-min Rain = 0
KRO1 210031Z 16008KT 11/M01 A3009 RMK A01 T01121009  RH  043%=      5-min Rain = 0
KRO1 210032Z 16008KT 11/M01 A3009 RMK A01 T01111009  RH  043%=      5-min Rain = 0
KRO1 210033Z 16008KT 11/M01 A3009 RMK A01 T01111008  RH  044%=      5-min Rain = 0
KRO1 210034Z 16008KT 11/M01 A3009 RMK A01 T01101008  RH  044%=      5-min Rain = 0
KRO1 210035Z 16009KT 11/M01 A3009 RMK A01 T01091009  RH  044%=      5-min Rain = 0
KRO1 210036Z 16008KT 11/M01 A3009 RMK A01 T01091009  RH  044%=      5-min Rain = 0
KRO1 210037Z 16008KT 11/M01 A3009 RMK A01 T01081009  RH  044%=      5-min Rain = 0
KRO1 210038Z 16008KT 11/M01 A3009 RMK A01 T01071009  RH  045%=      5-min Rain = 0
KRO1 210039Z 16008KT 11/M01 A3009 RMK A01 T01061009  RH  045%=      5-min Rain = 0
KRO1 210040Z 16008KT 11/M01 A3009 RMK A01 T01061008  RH  045%=      5-min Rain = 0
KRO1 210041Z 16008KT 11/M01 A3009 RMK A01 T01051008  RH  045%=      5-min Rain = 0
KRO1 210042Z 16008KT 10/M01 A3009 RMK A01 T01041009  RH  046%=      5-min Rain = 0
KRO1 210043Z 16008KT 10/M01 A3009 RMK A01 T01031009  RH  046%=      5-min Rain = 0
KRO1 210044Z 16008KT 10/M01 A3009 RMK A01 T01021009  RH  046%=      5-min Rain = 0
KRO1 210045Z 16008KT 10/M01 A3009 RMK A01 T01011009  RH  046%=      5-min Rain = 0
KRO1 210046Z 16008KT 10/M01 A3009 RMK A01 T01011010  RH  046%=      5-min Rain = 0
KRO1 210047Z 16009KT 10/M01 A3009 RMK A01 T01011009  RH  046%=      5-min Rain = 0
KRO1 210048Z 16009KT 10/M01 A3009 RMK A01 T01001009  RH  046%=      5-min Rain = 0
KRO1 210049Z 16009KT 10/M01 A3009 RMK A01 T01001009  RH  046%=      5-min Rain = 0
KRO1 210050Z 16008KT 10/M01 A3009 RMK A01 T01001010  RH  046%=      5-min Rain = 0
KRO1 210051Z 16008KT 10/M01 A3008 RMK A01 T00991010  RH  047%=      5-min Rain = 0
KRO1 210052Z 16008KT 10/M01 A3008 RMK A01 T00991010  RH  047%=      5-min Rain = 0
KRO1 210053Z 16008KT 10/M01 A3008 RMK A01 T00981010  RH  047%=      5-min Rain = 0
KRO1 210054Z 15008KT 10/M01 A3009 RMK A01 T00971010  RH  047%=      5-min Rain = 0
KRO1 210055Z 15008KT 10/M01 A3009 RMK A01 T00961009  RH  048%=      5-min Rain = 0
KRO1 210056Z 15007KT 10/M01 A3009 RMK A01 T00951009  RH  048%=      5-min Rain = 0
KRO1 210057Z 15007KT 09/M01 A3009 RMK A01 T00941009  RH  049%=      5-min Rain = 0
KRO1 210058Z 15007KT 09/M01 A3009 RMK A01 T00931009  RH  049%=      5-min Rain = 0
KRO1 210059Z 15007KT 09/M01 A3009 RMK A01 T00931009  RH  049%=      5-min Rain = 0
KRO1 210100Z 15007KT 09/M01 A3009 RMK A01 T00921009  RH  049%=      5-min Rain = 0
KRO1 210101Z 15007KT 09/M01 A3009 RMK A01 T00911009  RH  049%=      5-min Rain = 0
KRO1 210102Z 15007KT 09/M01 A3009 RMK A01 T00911008  RH  050%=      5-min Rain = 0
KRO1 210103Z 15007KT 09/M01 A3009 RMK A01 T00911008  RH  050%=      5-min Rain = 0
KRO1 210104Z 15007KT 09/M01 A3009 RMK A01 T00911008  RH  050%=      5-min Rain = 0
KRO1 210105Z 15007KT 09/M01 A3009 RMK A01 T00911008  RH  050%=      5-min Rain = 0
KRO1 210106Z 15007KT 09/M01 A3009 RMK A01 T00911008  RH  050%=      5-min Rain = 0
KRO1 210107Z 15007KT 09/M01 A3009 RMK A01 T00911008  RH  050%=      5-min Rain = 0
KRO1 210108Z 15007KT 09/M01 A3009 RMK A01 T00921008  RH  050%=      5-min Rain = 0
KRO1 210109Z 16007KT 09/M01 A3009 RMK A01 T00931007  RH  050%=      5-min Rain = 0
KRO1 210110Z 16008KT 09/M01 A3009 RMK A01 T00931007  RH  050%=      5-min Rain = 0
KRO1 210111Z 16008KT 09/M01 A3009 RMK A01 T00931007  RH  050%=      5-min Rain = 0
KRO1 210112Z 16008KT 09/M01 A3009 RMK A01 T00921007  RH  050%=      5-min Rain = 0
KRO1 210113Z 15007KT 09/M01 A3009 RMK A01 T00931007  RH  050%=      5-min Rain = 0
KRO1 210114Z 15007KT 09/M01 A3009 RMK A01 T00921008  RH  050%=      5-min Rain = 0
KRO1 210115Z 15008KT 09/M01 A3009 RMK A01 T00911008  RH  050%=      5-min Rain = 0
KRO1 210116Z 16009KT 09/M01 A3009 RMK A01 T00911007  RH  050%=      5-min Rain = 0
KRO1 210117Z 16009KT 09/M01 A3009 RMK A01 T00911007  RH  050%=      5-min Rain = 0
KRO1 210118Z 16009KT 09/M01 A3009 RMK A01 T00911006  RH  051%=      5-min Rain = 0
KRO1 210119Z 16009KT 09/M01 A3009 RMK A01 T00921006  RH  051%=      5-min Rain = 0
KRO1 210120Z 16009KT 09/M01 A3009 RMK A01 T00931005  RH  051%=      5-min Rain = 0
KRO1 210121Z 16009KT 09/M00 A3009 RMK A01 T00941004  RH  050%=      5-min Rain = 0
KRO1 210122Z 16009KT 09/M00 A3009 RMK A01 T00941004  RH  050%=      5-min Rain = 0
KRO1 210123Z 16008KT 09/M00 A3009 RMK A01 T00941004  RH  051%=      5-min Rain = 0
KRO1 210124Z 16008KT 09/M00 A3009 RMK A01 T00941003  RH  051%=      5-min Rain = 0
KRO1 210125Z 16009KT 09/M00 A3008 RMK A01 T00931003  RH  051%=      5-min Rain = 0
KRO1 210126Z 15009KT 09/M00 A3008 RMK A01 T00921003  RH  051%=      5-min Rain = 0
KRO1 210127Z 15008KT 09/M00 A3008 RMK A01 T00921003  RH  052%=      5-min Rain = 0
KRO1 210128Z 15008KT 09/M00 A3008 RMK A01 T00901003  RH  052%=      5-min Rain = 0
KRO1 210129Z 15008KT 09/M00 A3008 RMK A01 T00891003  RH  052%=      5-min Rain = 0
KRO1 210130Z 15008KT 09/M00 A3008 RMK A01 T00881003  RH  053%=      5-min Rain = 0
KRO1 210131Z 15008KT 09/M00 A3008 RMK A01 T00871003  RH  053%=      5-min Rain = 0
KRO1 210132Z 15008KT 09/M00 A3008 RMK A01 T00861003  RH  054%=      5-min Rain = 0
KRO1 210133Z 15008KT 09/M00 A3008 RMK A01 T00861002  RH  054%=      5-min Rain = 0
KRO1 210134Z 15009KT 09/M00 A3008 RMK A01 T00861002  RH  054%=      5-min Rain = 0
KRO1 210135Z 15009KT 09/M00 A3008 RMK A01 T00861002  RH  054%=      5-min Rain = 0
KRO1 210136Z 15009KT 09/M00 A3008 RMK A01 T00851002  RH  054%=      5-min Rain = 0
KRO1 210137Z 15009KT 09/M00 A3008 RMK A01 T00851002  RH  054%=      5-min Rain = 0
KRO1 210138Z 16009KT 09/M00 A3008 RMK A01 T00861001  RH  054%=      5-min Rain = 0
KRO1 210139Z 15009KT 09/M00 A3008 RMK A01 T00861001  RH  054%=      5-min Rain = 0
KRO1 210140Z 16009KT 09/M00 A3008 RMK A01 T00871001  RH  054%=      5-min Rain = 0
KRO1 210141Z 15009KT 09/M00 A3008 RMK A01 T00871001  RH  054%=      5-min Rain = 0
KRO1 210142Z 16009KT 09/M00 A3008 RMK A01 T00871001  RH  054%=      5-min Rain = 0
KRO1 210143Z 16009KT 09/M00 A3008 RMK A01 T00881001  RH  054%=      5-min Rain = 0
KRO1 210144Z 16009KT 09/M00 A3008 RMK A01 T00881001  RH  054%=      5-min Rain = 0
KRO1 210145Z 16009KT 09/M00 A3008 RMK A01 T00881001  RH  054%=      5-min Rain = 0
KRO1 210146Z 16009KT 09/M00 A3008 RMK A01 T00881001  RH  054%=      5-min Rain = 0
KRO1 210147Z 16009KT 09/M00 A3008 RMK A01 T00881001  RH  054%=      5-min Rain = 0
KRO1 210148Z 16009KT 09/M00 A3008 RMK A01 T00881001  RH  054%=      5-min Rain = 0
KRO1 210149Z 16009KT 09/M00 A3008 RMK A01 T00881001  RH  054%=      5-min Rain = 0
KRO1 210150Z 16009KT 09/M00 A3008 RMK A01 T00871001  RH  054%=      5-min Rain = 0
KRO1 210151Z 16008KT 09/M00 A3008 RMK A01 T00871001  RH  054%=      5-min Rain = 0
KRO1 210152Z 16008KT 09/M00 A3008 RMK A01 T00861001  RH  054%=      5-min Rain = 0
KRO1 210153Z 16009KT 09/M00 A3008 RMK A01 T00861001  RH  054%=      5-min Rain = 0
KRO1 210154Z 16009KT 09/M00 A3008 RMK A01 T00851002  RH  054%=      5-min Rain = 0
KRO1 210155Z 16009KT 08/M00 A3008 RMK A01 T00841001  RH  055%=      5-min Rain = 0
KRO1 210156Z 16009KT 08/M00 A3008 RMK A01 T00831002  RH  055%=      5-min Rain = 0
KRO1 210157Z 15009KT 08/M00 A3008 RMK A01 T00821002  RH  055%=      5-min Rain = 0
KRO1 210158Z 15009KT 08/M00 A3008 RMK A01 T00811002  RH  056%=      5-min Rain = 0
KRO1 210159Z 15009KT 08/M00 A3008 RMK A01 T00811002  RH  056%=      5-min Rain = 0
KRO1 210200Z 15009KT 08/M00 A3008 RMK A01 T00801002  RH  056%=      5-min Rain = 0
KRO1 210201Z 16009KT 08/M00 A3008 RMK A01 T00801002  RH  056%=      5-min Rain = 0
KRO1 210202Z 16009KT 08/M00 A3008 RMK A01 T00791003  RH  056%=      5-min Rain = 0
KRO1 210203Z 16009KT 08/M00 A3008 RMK A01 T00791002  RH  056%=      5-min Rain = 0
KRO1 210204Z 16009KT 08/M00 A3008 RMK A01 T00801002  RH  056%=      5-min Rain = 0
KRO1 210205Z 16009KT 08/M00 A3008 RMK A01 T00801001  RH  056%=      5-min Rain = 0
KRO1 210206Z 16009KT 08/M00 A3008 RMK A01 T00801002  RH  056%=      5-min Rain = 0
KRO1 210207Z 16009KT 08/M00 A3007 RMK A01 T00801002  RH  056%=      5-min Rain = 0
KRO1 210208Z 16009KT 08/M00 A3007 RMK A01 T00791002  RH  056%=      5-min Rain = 0
KRO1 210209Z 16009KT 08/M00 A3007 RMK A01 T00791002  RH  057%=      5-min Rain = 0
KRO1 210210Z 16009KT 08/M00 A3007 RMK A01 T00781002  RH  057%=      5-min Rain = 0
KRO1 210211Z 16009KT 08/M00 A3007 RMK A01 T00781002  RH  057%=      5-min Rain = 0
KRO1 210212Z 16009KT 08/M00 A3007 RMK A01 T00781002  RH  057%=      5-min Rain = 0
KRO1 210213Z 16009KT 08/M00 A3007 RMK A01 T00771002  RH  057%=      5-min Rain = 0
KRO1 210214Z 16009KT 08/M00 A3007 RMK A01 T00771001  RH  058%=      5-min Rain = 0
KRO1 210215Z 16009KT 08/M00 A3007 RMK A01 T00771002  RH  057%=      5-min Rain = 0
KRO1 210216Z 16009KT 08/M00 A3007 RMK A01 T00771002  RH  057%=      5-min Rain = 0
KRO1 210217Z 16008KT 08/M00 A3007 RMK A01 T00771002  RH  057%=      5-min Rain = 0
KRO1 210218Z 16008KT 08/M00 A3007 RMK A01 T00761003  RH  057%=      5-min Rain = 0
KRO1 210219Z 16008KT 08/M00 A3007 RMK A01 T00751003  RH  057%=      5-min Rain = 0
KRO1 210220Z 16008KT 07/M00 A3007 RMK A01 T00741004  RH  058%=      5-min Rain = 0
KRO1 210221Z 16008KT 07/M00 A3007 RMK A01 T00731003  RH  058%=      5-min Rain = 0
KRO1 210222Z 16008KT 07/M00 A3007 RMK A01 T00721003  RH  059%=      5-min Rain = 0
KRO1 210223Z 16008KT 07/M00 A3007 RMK A01 T00711003  RH  059%=      5-min Rain = 0
KRO1 210224Z 16008KT 07/M00 A3007 RMK A01 T00691003  RH  060%=      5-min Rain = 0
KRO1 210225Z 16008KT 07/M00 A3007 RMK A01 T00681003  RH  060%=      5-min Rain = 0
KRO1 210226Z 16009KT 07/M00 A3007 RMK A01 T00681004  RH  060%=      5-min Rain = 0
KRO1 210227Z 16008KT 07/M00 A3007 RMK A01 T00681004  RH  060%=      5-min Rain = 0
KRO1 210228Z 16009KT 07/M00 A3007 RMK A01 T00681004  RH  060%=      5-min Rain = 0
KRO1 210229Z 16009KT 07/M00 A3007 RMK A01 T00681004  RH  060%=      5-min Rain = 0
KRO1 210230Z 16008KT 07/M00 A3007 RMK A01 T00691004  RH  059%=      5-min Rain = 0
KRO1 210231Z 16008KT 07/M00 A3007 RMK A01 T00701004  RH  059%=      5-min Rain = 0
KRO1 210232Z 16008KT 07/M00 A3007 RMK A01 T00711004  RH  059%=      5-min Rain = 0
KRO1 210233Z 16008KT 07/M00 A3007 RMK A01 T00711003  RH  059%=      5-min Rain = 0
KRO1 210234Z 16009KT 07/M00 A3007 RMK A01 T00711002  RH  059%=      5-min Rain = 0
KRO1 210235Z 16009KT 07/M00 A3007 RMK A01 T00721002  RH  060%=      5-min Rain = 0
KRO1 210236Z 16009KT 07/M00 A3007 RMK A01 T00711002  RH  060%=      5-min Rain = 0
KRO1 210237Z 16009KT 07/M00 A3007 RMK A01 T00711002  RH  060%=      5-min Rain = 0
KRO1 210238Z 16008KT 07/M00 A3007 RMK A01 T00711003  RH  059%=      5-min Rain = 0
KRO1 210239Z 16009KT 07/M00 A3007 RMK A01 T00711003  RH  059%=      5-min Rain = 0
KRO1 210240Z 16009KT 07/M00 A3007 RMK A01 T00701003  RH  059%=      5-min Rain = 0
KRO1 210241Z 16009KT 07/M00 A3007 RMK A01 T00701004  RH  059%=      5-min Rain = 0
KRO1 210242Z 16009KT 07/M00 A3007 RMK A01 T00701004  RH  059%=      5-min Rain = 0
KRO1 210243Z 16009KT 07/M00 A3007 RMK A01 T00701004  RH  059%=      5-min Rain = 0
KRO1 210244Z 16009KT 07/M00 A3007 RMK A01 T00701004  RH  060%=      5-min Rain = 0
KRO1 210245Z 16009KT 07/M00 A3007 RMK A01 T00701003  RH  060%=      5-min Rain = 0
KRO1 210246Z 16010KT 07/M00 A3007 RMK A01 T00691003  RH  060%=      5-min Rain = 0
KRO1 210247Z 16010KT 07/M00 A3006 RMK A01 T00691004  RH  060%=      5-min Rain = 0
KRO1 210248Z 16010KT 07/M00 A3006 RMK A01 T00701003  RH  060%=      5-min Rain = 0
KRO1 210249Z 17010KT 07/M00 A3006 RMK A01 T00701003  RH  060%=      5-min Rain = 0
KRO1 210250Z 17011KT 07/M00 A3006 RMK A01 T00701003  RH  060%=      5-min Rain = 0
KRO1 210251Z 17011KT 07/M00 A3006 RMK A01 T00701003  RH  059%=      5-min Rain = 0
KRO1 210252Z 17011KT 07/M00 A3006 RMK A01 T00711004  RH  059%=      5-min Rain = 0
KRO1 210253Z 17010KT 07/M00 A3006 RMK A01 T00711004  RH  059%=      5-min Rain = 0
KRO1 210254Z 17011KT 07/M00 A3006 RMK A01 T00711003  RH  059%=      5-min Rain = 0
KRO1 210255Z 17011KT 07/M00 A3006 RMK A01 T00711003  RH  059%=      5-min Rain = 0
KRO1 210256Z 17010KT 07/M00 A3006 RMK A01 T00711003  RH  059%=      5-min Rain = 0
KRO1 210257Z 17010KT 07/M00 A3006 RMK A01 T00701003  RH  060%=      5-min Rain = 0
KRO1 210258Z 17010KT 07/M00 A3006 RMK A01 T00691003  RH  060%=      5-min Rain = 0
KRO1 210259Z 17010KT 07/M00 A3006 RMK A01 T00681003  RH  060%=      5-min Rain = 0
KRO1 210300Z 17010KT 07/M00 A3006 RMK A01 T00681004  RH  060%=      5-min Rain = 0
KRO1 210301Z 17010KT 07/M00 A3006 RMK A01 T00681004  RH  060%=      5-min Rain = 0
KRO1 210302Z 17010KT 07/M00 A3006 RMK A01 T00671004  RH  060%=      5-min Rain = 0
KRO1 210303Z 17010KT 07/M00 A3006 RMK A01 T00671004  RH  060%=      5-min Rain = 0
KRO1 210304Z 17010KT 07/M01 A3006 RMK A01 T00671005  RH  060%=      5-min Rain = 0
KRO1 210305Z 17010KT 07/M01 A3006 RMK A01 T00671005  RH  060%=      5-min Rain = 0
KRO1 210306Z 17010KT 07/M01 A3006 RMK A01 T00671005  RH  060%=      5-min Rain = 0
KRO1 210307Z 17010KT 07/M01 A3006 RMK A01 T00671005  RH  060%=      5-min Rain = 0
KRO1 210308Z 17011KT 07/M00 A3006 RMK A01 T00671004  RH  060%=      5-min Rain = 0
KRO1 210309Z 17011KT 07/M00 A3006 RMK A01 T00671004  RH  060%=      5-min Rain = 0
KRO1 210310Z 17011KT 07/M00 A3006 RMK A01 T00681004  RH  060%=      5-min Rain = 0
KRO1 210311Z 17011KT 07/M00 A3006 RMK A01 T00671004  RH  060%=      5-min Rain = 0
KRO1 210312Z 17011KT 07/M00 A3006 RMK A01 T00671004  RH  061%=      5-min Rain = 0
KRO1 210313Z 17011KT 07/M00 A3006 RMK A01 T00671003  RH  061%=      5-min Rain = 0
KRO1 210314Z 17011KT 07/M00 A3006 RMK A01 T00661003  RH  061%=      5-min Rain = 0
KRO1 210315Z 17011KT 07/M00 A3006 RMK A01 T00661003  RH  061%=      5-min Rain = 0
KRO1 210316Z 17011KT 07/M00 A3005 RMK A01 T00661003  RH  061%=      5-min Rain = 0
KRO1 210317Z 17011KT 07/M00 A3005 RMK A01 T00661003  RH  062%=      5-min Rain = 0
KRO1 210318Z 17011KT 07/M00 A3005 RMK A01 T00661003  RH  062%=      5-min Rain = 0
KRO1 210319Z 17011KT 07/M00 A3005 RMK A01 T00651003  RH  062%=      5-min Rain = 0
KRO1 210320Z 17011KT 07/M00 A3005 RMK A01 T00651003  RH  062%=      5-min Rain = 0
KRO1 210321Z 17011KT 07/M00 A3005 RMK A01 T00651003  RH  062%=      5-min Rain = 0
KRO1 210322Z 17011KT 07/M00 A3005 RMK A01 T00661002  RH  062%=      5-min Rain = 0
KRO1 210323Z 17011KT 07/M00 A3005 RMK A01 T00661002  RH  062%=      5-min Rain = 0
KRO1 210324Z 17011KT 07/M00 A3005 RMK A01 T00661002  RH  062%=      5-min Rain = 0
KRO1 210325Z 17011KT 07/M00 A3005 RMK A01 T00661002  RH  062%=      5-min Rain = 0
KRO1 210326Z 17011KT 07/M00 A3005 RMK A01 T00651003  RH  062%=      5-min Rain = 0
KRO1 210327Z 17011KT 07/M00 A3005 RMK A01 T00661002  RH  062%=      5-min Rain = 0
KRO1 210328Z 17011KT 07/M00 A3005 RMK A01 T00661002  RH  062%=      5-min Rain = 0
KRO1 210329Z 17011KT 07/M00 A3005 RMK A01 T00661003  RH  061%=      5-min Rain = 0
KRO1 210330Z 17011KT 07/M00 A3005 RMK A01 T00661002  RH  061%=      5-min Rain = 0
KRO1 210331Z 17011KT 07/M00 A3005 RMK A01 T00661003  RH  061%=      5-min Rain = 0
KRO1 210332Z 17011KT 07/M00 A3005 RMK A01 T00671002  RH  061%=      5-min Rain = 0
KRO1 210333Z 17011KT 07/M00 A3005 RMK A01 T00671002  RH  061%=      5-min Rain = 0
KRO1 210334Z 17011KT 07/M00 A3005 RMK A01 T00671002  RH  061%=      5-min Rain = 0
KRO1 210335Z 17011KT 07/M00 A3005 RMK A01 T00671002  RH  061%=      5-min Rain = 0
KRO1 210336Z 17011KT 07/M00 A3005 RMK A01 T00671002  RH  061%=      5-min Rain = 0
KRO1 210337Z 17011KT 07/M00 A3005 RMK A01 T00671002  RH  061%=      5-min Rain = 0
KRO1 210338Z 17011KT 07/M00 A3005 RMK A01 T00681001  RH  061%=      5-min Rain = 0
KRO1 210339Z 17011KT 07/M00 A3005 RMK A01 T00671002  RH  061%=      5-min Rain = 0
KRO1 210340Z 18011KT 07/M00 A3005 RMK A01 T00671002  RH  062%=      5-min Rain = 0
KRO1 210341Z 18010KT 07/M00 A3005 RMK A01 T00661002  RH  062%=      5-min Rain = 0
KRO1 210342Z 18011KT 07/M00 A3005 RMK A01 T00661003  RH  062%=      5-min Rain = 0
KRO1 210343Z 18011KT 07/M00 A3005 RMK A01 T00651003  RH  062%=      5-min Rain = 0
KRO1 210344Z 18011KT 07/M00 A3005 RMK A01 T00661002  RH  062%=      5-min Rain = 0
KRO1 210345Z 18012KT 07/M00 A3004 RMK A01 T00661003  RH  062%=      5-min Rain = 0
KRO1 210346Z 17012KT 07/M00 A3004 RMK A01 T00661003  RH  061%=      5-min Rain = 0
KRO1 210347Z 17012KT 07/M00 A3004 RMK A01 T00671003  RH  061%=      5-min Rain = 0
KRO1 210348Z 17012KT 07/M00 A3004 RMK A01 T00681003  RH  061%=      5-min Rain = 0
KRO1 210349Z 17012KT 07/M00 A3004 RMK A01 T00691003  RH  060%=      5-min Rain = 0
KRO1 210350Z 17012KT 07/M00 A3004 RMK A01 T00691003  RH  060%=      5-min Rain = 0
KRO1 210351Z 17012KT 07/M00 A3004 RMK A01 T00701002  RH  060%=      5-min Rain = 0
KRO1 210352Z 17012KT 07/M00 A3004 RMK A01 T00701003  RH  060%=      5-min Rain = 0
KRO1 210353Z 17012KT 07/M00 A3004 RMK A01 T00701003  RH  060%=      5-min Rain = 0
KRO1 210354Z 17012KT 07/M00 A3004 RMK A01 T00701003  RH  060%=      5-min Rain = 0
KRO1 210355Z 18012KT 07/M00 A3004 RMK A01 T00701002  RH  060%=      5-min Rain = 0
KRO1 210356Z 18012KT 07/M00 A3004 RMK A01 T00701002  RH  060%=      5-min Rain = 0
KRO1 210357Z 18011KT 07/M00 A3004 RMK A01 T00701003  RH  060%=      5-min Rain = 0
KRO1 210358Z 18011KT 07/M00 A3004 RMK A01 T00701002  RH  060%=      5-min Rain = 0
KRO1 210359Z 18011KT 07/M00 A3004 RMK A01 T00701003  RH  060%=      5-min Rain = 0
KRO1 210400Z 18011KT 07/M00 A3004 RMK A01 T00711003  RH  059%=      5-min Rain = 0
KRO1 210401Z 17011KT 07/M00 A3004 RMK A01 T00711003  RH  059%=      5-min Rain = 0
KRO1 210402Z 18011KT 07/M00 A3004 RMK A01 T00711003  RH  059%=      5-min Rain = 0
KRO1 210403Z 17012KT 07/M00 A3004 RMK A01 T00721003  RH  059%=      5-min Rain = 0
KRO1 210404Z 17011KT 07/M00 A3004 RMK A01 T00721003  RH  059%=      5-min Rain = 0
KRO1 210405Z 17011KT 07/M00 A3004 RMK A01 T00721003  RH  059%=      5-min Rain = 0
KRO1 210406Z 17011KT 07/M00 A3004 RMK A01 T00721003  RH  059%=      5-min Rain = 0
KRO1 210407Z 17011KT 07/M00 A3004 RMK A01 T00721003  RH  059%=      5-min Rain = 0
KRO1 210408Z 17011KT 07/M00 A3004 RMK A01 T00721003  RH  059%=      5-min Rain = 0
KRO1 210409Z 17011KT 07/M00 A3004 RMK A01 T00711003  RH  059%=      5-min Rain = 0
KRO1 210410Z 17011KT 07/M00 A3003 RMK A01 T00711003  RH  059%=      5-min Rain = 0
KRO1 210411Z 17011KT 07/M00 A3003 RMK A01 T00721002  RH  059%=      5-min Rain = 0
KRO1 210412Z 17010KT 07/M00 A3003 RMK A01 T00711003  RH  059%=      5-min Rain = 0
KRO1 210413Z 17010KT 07/M00 A3003 RMK A01 T00721003  RH  059%=      5-min Rain = 0
KRO1 210414Z 17010KT 07/M00 A3003 RMK A01 T00721002  RH  059%=      5-min Rain = 0
KRO1 210415Z 17010KT 07/M00 A3003 RMK A01 T00721002  RH  059%=      5-min Rain = 0
KRO1 210416Z 17010KT 07/M00 A3003 RMK A01 T00721002  RH  059%=      5-min Rain = 0
KRO1 210417Z 17010KT 07/M00 A3003 RMK A01 T00711002  RH  060%=      5-min Rain = 0
KRO1 210418Z 17010KT 07/M00 A3003 RMK A01 T00711002  RH  060%=      5-min Rain = 0
KRO1 210419Z 17010KT 07/M00 A3003 RMK A01 T00711002  RH  060%=      5-min Rain = 0
KRO1 210420Z 17010KT 07/M00 A3003 RMK A01 T00701002  RH  060%=      5-min Rain = 0
KRO1 210421Z 17010KT 07/M00 A3003 RMK A01 T00701002  RH  060%=      5-min Rain = 0
KRO1 210422Z 17010KT 07/M00 A3003 RMK A01 T00701002  RH  060%=      5-min Rain = 0
KRO1 210423Z 17011KT 07/M00 A3003 RMK A01 T00701002  RH  060%=      5-min Rain = 0
KRO1 210424Z 17011KT 07/M00 A3003 RMK A01 T00691002  RH  060%=      5-min Rain = 0
KRO1 210425Z 17011KT 07/M00 A3003 RMK A01 T00691002  RH  061%=      5-min Rain = 0
KRO1 210426Z 17011KT 07/M00 A3003 RMK A01 T00691002  RH  061%=      5-min Rain = 0
KRO1 210427Z 17011KT 07/M00 A3003 RMK A01 T00691002  RH  060%=      5-min Rain = 0
KRO1 210428Z 17011KT 07/M00 A3003 RMK A01 T00691002  RH  060%=      5-min Rain = 0
KRO1 210429Z 17011KT 07/M00 A3003 RMK A01 T00691002  RH  060%=      5-min Rain = 0
KRO1 210430Z 17011KT 07/M00 A3003 RMK A01 T00691002  RH  060%=      5-min Rain = 0
KRO1 210431Z 17011KT 07/M00 A3003 RMK A01 T00691002  RH  060%=      5-min Rain = 0
KRO1 210432Z 17011KT 07/M00 A3003 RMK A01 T00691002  RH  060%=      5-min Rain = 0
KRO1 210433Z 17011KT 07/M00 A3003 RMK A01 T00691002  RH  061%=      5-min Rain = 0
KRO1 210434Z 17012KT 07/M00 A3003 RMK A01 T00681002  RH  061%=      5-min Rain = 0
KRO1 210435Z 17012KT 07/M00 A3003 RMK A01 T00681002  RH  061%=      5-min Rain = 0
KRO1 210436Z 17012KT 07/M00 A3003 RMK A01 T00681002  RH  061%=      5-min Rain = 0
KRO1 210437Z 17012KT 07/M00 A3003 RMK A01 T00681003  RH  060%=      5-min Rain = 0
KRO1 210438Z 17012KT 07/M00 A3003 RMK A01 T00691003  RH  060%=      5-min Rain = 0
KRO1 210439Z 17012KT 07/M00 A3003 RMK A01 T00701003  RH  060%=      5-min Rain = 0
KRO1 210440Z 17012KT 07/M00 A3003 RMK A01 T00701003  RH  059%=      5-min Rain = 0
KRO1 210441Z 17012KT 07/M00 A3003 RMK A01 T00711003  RH  059%=      5-min Rain = 0
KRO1 210442Z 17012KT 07/M00 A3003 RMK A01 T00711003  RH  059%=      5-min Rain = 0
KRO1 210443Z 17012KT 07/M00 A3003 RMK A01 T00711003  RH  059%=      5-min Rain = 0
KRO1 210444Z 17012KT 07/M00 A3003 RMK A01 T00701003  RH  060%=      5-min Rain = 0
KRO1 210445Z 17012KT 07/M00 A3003 RMK A01 T00701003  RH  060%=      5-min Rain = 0
KRO1 210446Z 17012KT 07/M00 A3003 RMK A01 T00691003  RH  060%=      5-min Rain = 0
KRO1 210447Z 17012KT 07/M00 A3003 RMK A01 T00691003  RH  060%=      5-min Rain = 0
KRO1 210448Z 17011KT 07/M00 A3003 RMK A01 T00691003  RH  060%=      5-min Rain = 0
KRO1 210449Z 17012KT 07/M00 A3003 RMK A01 T00681003  RH  060%=      5-min Rain = 0
KRO1 210450Z 17011KT 07/M00 A3003 RMK A01 T00681003  RH  061%=      5-min Rain = 0
KRO1 210451Z 17011KT 07/M00 A3003 RMK A01 T00681003  RH  061%=      5-min Rain = 0
KRO1 210452Z 17011KT 07/M00 A3003 RMK A01 T00681003  RH  060%=      5-min Rain = 0
KRO1 210453Z 17011KT 07/M00 A3003 RMK A01 T00681003  RH  060%=      5-min Rain = 0
KRO1 210454Z 17011KT 07/M00 A3003 RMK A01 T00681004  RH  060%=      5-min Rain = 0
KRO1 210455Z 17011KT 07/M00 A3003 RMK A01 T00681004  RH  060%=      5-min Rain = 0
KRO1 210456Z 17012KT 07/M00 A3003 RMK A01 T00691004  RH  060%=      5-min Rain = 0
KRO1 210457Z 17011KT 07/M00 A3003 RMK A01 T00701003  RH  059%=      5-min Rain = 0
KRO1 210458Z 17011KT 07/M00 A3003 RMK A01 T00711003  RH  059%=      5-min Rain = 0
KRO1 210459Z 17011KT 07/M00 A3003 RMK A01 T00711003  RH  059%=      5-min Rain = 0
KRO1 210500Z 17011KT 07/M00 A3003 RMK A01 T00711003  RH  059%=      5-min Rain = 0
KRO1 210501Z 17011KT 07/M00 A3003 RMK A01 T00711003  RH  059%=      5-min Rain = 0
KRO1 210502Z 17011KT 07/M00 A3003 RMK A01 T00731003  RH  059%=      5-min Rain = 0
KRO1 210503Z 17011KT 07/M00 A3003 RMK A01 T00731003  RH  058%=      5-min Rain = 0
KRO1 210504Z 17011KT 07/M00 A3003 RMK A01 T00741003  RH  058%=      5-min Rain = 0
KRO1 210505Z 17011KT 08/M00 A3003 RMK A01 T00751003  RH  057%=      5-min Rain = 0
KRO1 210506Z 17010KT 08/M00 A3003 RMK A01 T00761003  RH  057%=      5-min Rain = 0
KRO1 210507Z 17010KT 08/M00 A3004 RMK A01 T00761003  RH  057%=      5-min Rain = 0
KRO1 210508Z 17009KT 08/M00 A3004 RMK A01 T00761003  RH  057%=      5-min Rain = 0
KRO1 210509Z 17009KT 08/M00 A3004 RMK A01 T00751003  RH  058%=      5-min Rain = 0
KRO1 210510Z 17009KT 07/M00 A3004 RMK A01 T00741004  RH  058%=      5-min Rain = 0
KRO1 210511Z 18010KT 07/M00 A3004 RMK A01 T00741003  RH  058%=      5-min Rain = 0
KRO1 210512Z 17009KT 07/M00 A3004 RMK A01 T00731004  RH  058%=      5-min Rain = 0
KRO1 210513Z 17010KT 07/M00 A3004 RMK A01 T00721004  RH  058%=      5-min Rain = 0
KRO1 210514Z 18010KT 07/M00 A3004 RMK A01 T00721004  RH  059%=      5-min Rain = 0
KRO1 210515Z 18009KT 07/M00 A3004 RMK A01 T00721004  RH  059%=      5-min Rain = 0
KRO1 210516Z 18009KT 07/M00 A3004 RMK A01 T00721004  RH  058%=      5-min Rain = 0
KRO1 210517Z 18009KT 07/M00 A3004 RMK A01 T00731004  RH  058%=      5-min Rain = 0
KRO1 210518Z 18010KT 07/M00 A3004 RMK A01 T00741004  RH  058%=      5-min Rain = 0
KRO1 210519Z 18010KT 08/M00 A3004 RMK A01 T00751004  RH  057%=      5-min Rain = 0
KRO1 210520Z 18010KT 07/M00 A3004 RMK A01 T00741004  RH  058%=      5-min Rain = 0
KRO1 210521Z 18010KT 07/M01 A3004 RMK A01 T00741005  RH  057%=      5-min Rain = 0
KRO1 210522Z 18011KT 07/M00 A3004 RMK A01 T00741004  RH  057%=      5-min Rain = 0
KRO1 210523Z 18010KT 07/M00 A3004 RMK A01 T00741004  RH  057%=      5-min Rain = 0
KRO1 210524Z 18010KT 08/M01 A3004 RMK A01 T00751005  RH  057%=      5-min Rain = 0
KRO1 210525Z 18011KT 07/M01 A3004 RMK A01 T00741005  RH  057%=      5-min Rain = 0
KRO1 210526Z 18011KT 07/M01 A3004 RMK A01 T00741005  RH  057%=      5-min Rain = 0
KRO1 210527Z 18011KT 07/M01 A3004 RMK A01 T00741005  RH  057%=      5-min Rain = 0
KRO1 210528Z 18012KT 07/M01 A3003 RMK A01 T00741005  RH  057%=      5-min Rain = 0
KRO1 210529Z 18012KT 08/M01 A3003 RMK A01 T00751005  RH  057%=      5-min Rain = 0
KRO1 210530Z 18012KT 08/M01 A3003 RMK A01 T00761005  RH  056%=      5-min Rain = 0
KRO1 210531Z 18012KT 08/M01 A3003 RMK A01 T00771005  RH  056%=      5-min Rain = 0
KRO1 210532Z 18011KT 08/M01 A3003 RMK A01 T00771005  RH  056%=      5-min Rain = 0
KRO1 210533Z 18011KT 08/M01 A3003 RMK A01 T00771005  RH  056%=      5-min Rain = 0
KRO1 210534Z 19011KT 08/M01 A3003 RMK A01 T00781005  RH  056%=      5-min Rain = 0
KRO1 210535Z 18012KT 08/M00 A3003 RMK A01 T00781004  RH  056%=      5-min Rain = 0
KRO1 210536Z 19013KT 08/M00 A3003 RMK A01 T00801004  RH  055%=      5-min Rain = 0
KRO1 210537Z 19013KT 08/M00 A3003 RMK A01 T00821004  RH  055%=      5-min Rain = 0
KRO1 210538Z 19014KT 08/M00 A3003 RMK A01 T00831004  RH  055%=      5-min Rain = 0
KRO1 210539Z 19014KT 08/M00 A3003 RMK A01 T00841004  RH  054%=      5-min Rain = 0
KRO1 210540Z 19014KT 09/M00 A3003 RMK A01 T00851004  RH  054%=      5-min Rain = 0
KRO1 210541Z 19014KT 09/M00 A3003 RMK A01 T00861004  RH  053%=      5-min Rain = 0
KRO1 210542Z 19014KT 09/M00 A3003 RMK A01 T00861004  RH  053%=      5-min Rain = 0
KRO1 210543Z 19013KT 09/M00 A3003 RMK A01 T00861004  RH  053%=      5-min Rain = 0
KRO1 210544Z 19013KT 09/M00 A3003 RMK A01 T00861004  RH  053%=      5-min Rain = 0
KRO1 210545Z 19013KT 09/M00 A3003 RMK A01 T00861004  RH  053%=      5-min Rain = 0
KRO1 210546Z 19013KT 09/M00 A3003 RMK A01 T00881004  RH  053%=      5-min Rain = 0
KRO1 210547Z 19013KT 09/M00 A3003 RMK A01 T00881004  RH  053%=      5-min Rain = 0
KRO1 210548Z 19013KT 09/M00 A3004 RMK A01 T00881004  RH  053%=      5-min Rain = 0
KRO1 210549Z 19013KT 09/M00 A3004 RMK A01 T00881004  RH  053%=      5-min Rain = 0
KRO1 210550Z 20012KT 09/M00 A3004 RMK A01 T00871004  RH  053%=      5-min Rain = 0
KRO1 210551Z 20012KT 09/M00 A3004 RMK A01 T00871004  RH  053%=      5-min Rain = 0
KRO1 210552Z 20011KT 09/M00 A3004 RMK A01 T00861004  RH  053%=      5-min Rain = 0
KRO1 210553Z 20011KT 09/M00 A3004 RMK A01 T00851004  RH  054%=      5-min Rain = 0
KRO1 210554Z 20012KT 09/M00 A3004 RMK A01 T00851004  RH  054%=      5-min Rain = 0
KRO1 210555Z 20011KT 09/M00 A3004 RMK A01 T00851004  RH  054%=      5-min Rain = 0
KRO1 210556Z 20011KT 09/M00 A3004 RMK A01 T00851004  RH  054%=      5-min Rain = 0
KRO1 210557Z 20012KT 08/M00 A3004 RMK A01 T00841004  RH  054%=      5-min Rain = 0
KRO1 210558Z 20012KT 08/M00 A3004 RMK A01 T00831004  RH  054%=      5-min Rain = 0
KRO1 210559Z 20013KT 08/M00 A3004 RMK A01 T00831004  RH  054%=      5-min Rain = 0

Page generated in 0.0914 seconds.